GFSMA_700_temp_024.txt.gz
Temp
2 2 1 1 1 0 -0 -0 -0 -0 -0 -0 -0 -0 -0 0 0 1 1 1 1 2 1 1 1 1 1 2 2 2 2 2 1 1 1 1 2 1 1 2 1 1 0
1 1 1 1 0 -0 -0 -1 -1 -1 -1 -1 -0 -1 -1 -0 -0 -0 0 1 1 1 1 1 1 1 0 0 1 2 2 1 1 1 1 1 1 1 1 2 1 1 1
1 1 0 -0 -1 -1 -1 -2 -2 -2 -2 -1 -1 -1 -1 -1 -1 -1 -1 -1 -0 0 0 1 1 1 0 -0 -0 -0 1 2 1 1 1 1 1 1 1 1 1 1 1
0 -0 -1 -1 -2 -2 -2 -2 -2 -2 -2 -2 -1 -1 -1 -2 -2 -2 -2 -1 -1 -1 -1 -1 -0 0 0 0 -0 -1 -1 -1 1 1 1 1 1 1 1 1 1 1 1
-1 -1 -2 -1 -2 -2 -2 -2 -3 -3 -2 -2 -2 -2 -2 -3 -3 -3 -3 -2 -2 -2 -2 -2 -2 -2 -1 -0 -0 -1 -1 -1 -2 -0 1 1 1 1 1 1 1 1 1
-1 -2 -1 -1 -1 -1 -2 -2 -2 -3 -2 -2 -2 -2 -2 -3 -3 -3 -4 -4 -4 -3 -3 -3 -3 -2 -2 -2 -2 -1 -2 -1 -1 -2 -1 -0 0 1 1 1 0 1 1
-2 -2 -2 -2 -2 -2 -2 -2 -2 -2 -3 -3 -3 -3 -3 -4 -4 -5 -5 -5 -5 -5 -5 -5 -5 -4 -3 -3 -3 -3 -2 -2 -2 -2 -2 -2 -1 -0 -0 -0 0 0 1
-2 -2 -2 -2 -2 -2 -2 -3 -3 -4 -4 -4 -5 -6 -6 -6 -6 -6 -6 -6 -6 -6 -6 -5 -6 -6 -5 -5 -4 -4 -4 -3 -3 -3 -3 -2 -2 -2 -0 -0 -0 0 -0
-1 -1 -1 -1 -2 -2 -4 -5 -5 -5 -6 -7 -7 -8 -8 -8 -8 -8 -8 -7 -7 -7 -7 -7 -6 -6 -6 -6 -6 -5 -5 -5 -4 -4 -4 -3 -3 -3 -3 -2 -2 -1 -1
-1 -2 -2 -4 -5 -5 -5 -6 -6 -7 -8 -8 -8 -8 -8 -9 -9 -8 -8 -8 -8 -8 -8 -8 -8 -8 -7 -7 -6 -6 -6 -5 -5 -5 -5 -4 -4 -3 -3 -2 -3 -3 -2
-3 -5 -5 -6 -6 -6 -7 -8 -8 -8 -8 -9 -9 -10 -9 -10 -9 -10 -9 -9 -9 -10 -10 -10 -11 -11 -10 -8 -8 -7 -7 -7 -6 -5 -5 -5 -4 -5 -4 -4 -3 -3 -3
-5 -5 -6 -6 -7 -7 -8 -8 -9 -9 -10 -10 -10 -11 -11 -10 -10 -10 -11 -11 -12 -13 -13 -12 -12 -13 -12 -11 -11 -10 -11 -10 -9 -7 -6 -6 -6 -5 -6 -5 -4 -3 -4
-5 -6 -6 -6 -7 -8 -9 -10 -11 -11 -11 -11 -11 -11 -12 -12 -12 -13 -13 -13 -14 -14 -14 -14 -13 -13 -13 -13 -13 -12 -12 -12 -11 -10 -8 -7 -7 -6 -6 -7 -6 -4 -4
-5 -6 -7 -8 -8 -10 -11 -12 -11 -12 -12 -12 -12 -12 -12 -13 -13 -14 -15 -15 -14 -14 -14 -14 -14 -14 -14 -14 -13 -13 -13 -13 -12 -12 -11 -9 -8 -7 -7 -7 -7 -5 -5
-7 -8 -9 -10 -11 -12 -13 -13 -12 -13 -14 -13 -14 -14 -14 -14 -15 -15 -16 -17 -17 -15 -14 -14 -14 -14 -15 -14 -14 -14 -14 -13 -13 -12 -12 -11 -10 -9 -8 -7 -7 -7 -6
-9 -10 -11 -12 -13 -13 -13 -13 -14 -14 -15 -15 -14 -15 -15 -15 -15 -16 -16 -16 -17 -17 -16 -15 -15 -15 -15 -15 -15 -15 -14 -14 -13 -13 -13 -12 -11 -10 -9 -9 -8 -7 -7
-10 -11 -11 -12 -12 -13 -13 -13 -14 -14 -15 -15 -15 -15 -15 -16 -16 -16 -16 -16 -16 -17 -17 -16 -16 -16 -15 -15 -15 -15 -15 -15 -14 -13 -12 -12 -12 -12 -10 -10 -10 -8 -7
-10 -11 -12 -12 -13 -13 -14 -14 -14 -14 -15 -15 -15 -16 -16 -16 -16 -16 -16 -16 -17 -17 -17 -17 -16 -16 -16 -16 -16 -16 -15 -16 -15 -15 -13 -12 -12 -12 -12 -11 -10 -11 -9
-11 -12 -12 -12 -13 -14 -14 -14 -15 -15 -15 -15 -16 -16 -16 -16 -16 -17 -17 -17 -17 -17 -18 -18 -17 -17 -17 -17 -17 -17 -16 -16 -16 -15 -15 -14 -13 -13 -12 -13 -12 -11 -11
-11 -12 -12 -12 -13 -14 -14 -15 -15 -15 -15 -16 -16 -16 -16 -17 -17 -17 -17 -17 -17 -17 -18 -18 -18 -18 -18 -18 -18 -18 -17 -17 -17 -16 -15 -15 -14 -13 -13 -13 -13 -12 -11
-12 -12 -12 -12 -14 -14 -15 -15 -15 -15 -16 -16 -16 -16 -16 -16 -17 -17 -17 -17 -18 -18 -19 -19 -19 -19 -19 -19 -19 -19 -19 -18 -17 -17 -16 -16 -15 -14 -14 -13 -13 -13 -12
-12 -12 -13 -14 -14 -15 -15 -15 -15 -16 -16 -16 -16 -16 -16 -16 -17 -17 -17 -18 -19 -19 -19 -20 -20 -20 -20 -20 -20 -20 -20 -19 -18 -18 -17 -16 -16 -15 -14 -14 -12 -13 -13
-13 -13 -14 -14 -15 -15 -15 -15 -15 -16 -16 -16 -16 -16 -16 -17 -17 -17 -18 -18 -19 -20 -20 -21 -21 -21 -20 -20 -20 -20 -20 -19 -19 -18 -17 -16 -16 -16 -16 -15 -14 -13 -13
-13 -14 -15 -15 -15 -15 -15 -15 -16 -16 -16 -16 -16 -16 -16 -17 -17 -17 -18 -18 -19 -20 -20 -21 -21 -21 -21 -21 -21 -20 -19 -19 -19 -18 -18 -17 -17 -16 -16 -16 -15 -14 -14
-14 -14 -15 -15 -15 -15 -15 -16 -16 -16 -16 -16 -17 -17 -17 -17 -17 -18 -18 -19 -19 -20 -21 -21 -21 -21 -21 -21 -21 -20 -19 -19 -18 -18 -18 -17 -17 -17 -16 -16 -16 -16 -16
-15 -15 -15 -15 -15 -15 -16 -16 -16 -16 -16 -17 -17 -17 -17 -17 -17 -18 -18 -19 -19 -20 -21 -21 -21 -21 -20 -20 -20 -20 -20 -19 -19 -18 -18 -17 -17 -17 -16 -16 -16 -16 -16

GFSMA_700_temp_027.txt.gz
Temp
2 1 1 0 -0 -0 -1 -1 -1 -1 -1 -0 0 1 1 1 1 1 1 1 2 1 1 1 1 1 2 2 2 2 1 1 1 2 2 2 2 1 1 2 2 2 1
1 1 0 -0 -1 -1 -1 -1 -1 -1 -1 0 0 1 1 1 1 1 1 1 1 1 1 1 1 1 1 1 1 1 1 1 1 1 1 1 1 2 2 2 2 2 2
1 0 -0 -1 -1 -1 -1 -2 -2 -2 -1 -1 -0 -0 -0 -0 -0 -0 -0 -0 -0 0 0 0 -0 -0 0 1 1 1 1 1 1 1 1 0 1 1 1 1 1 2 2
-0 -1 -1 -2 -2 -2 -1 -2 -1 -1 -1 -1 -2 -2 -2 -2 -2 -1 -2 -2 -2 -2 -2 -2 -1 -1 -1 -1 0 0 1 0 0 0 1 0 0 0 1 1 1 1 2
-1 -1 -1 -1 -1 -1 -1 -1 -1 -2 -2 -2 -2 -2 -2 -2 -2 -3 -2 -2 -2 -2 -2 -2 -2 -2 -2 -2 -2 -1 -0 -0 -0 -0 -0 0 -0 -1 -1 -0 0 1 1
-1 -1 -1 -1 -1 -1 -2 -2 -2 -2 -2 -2 -1 -1 -2 -2 -3 -3 -3 -4 -4 -3 -4 -3 -4 -4 -3 -3 -3 -2 -2 -1 -1 -1 -1 -1 -0 -1 -1 -1 -1 -0 0
-1 -2 -2 -2 -2 -2 -2 -2 -2 -2 -2 -2 -2 -2 -3 -3 -4 -5 -5 -6 -6 -6 -6 -6 -5 -5 -5 -4 -4 -4 -3 -3 -2 -2 -2 -2 -2 -1 -1 -1 -1 -1 -1
-2 -2 -2 -2 -2 -2 -3 -3 -3 -3 -3 -3 -4 -4 -5 -6 -6 -7 -7 -7 -7 -7 -7 -7 -7 -7 -6 -6 -5 -5 -5 -4 -4 -4 -3 -3 -3 -2 -2 -1 -2 -2 -1
-2 -2 -2 -2 -3 -3 -3 -4 -4 -5 -5 -6 -7 -7 -8 -8 -9 -9 -9 -9 -9 -8 -8 -8 -8 -7 -7 -7 -7 -6 -6 -6 -5 -5 -5 -4 -4 -4 -3 -2 -2 -2 -2
-3 -3 -3 -3 -4 -4 -5 -6 -6 -7 -7 -8 -9 -9 -10 -10 -10 -10 -11 -10 -10 -10 -9 -9 -9 -9 -9 -8 -8 -8 -7 -7 -6 -6 -6 -5 -5 -5 -4 -3 -3 -2 -2
-3 -3 -4 -5 -5 -6 -6 -6 -7 -7 -8 -10 -11 -11 -11 -11 -11 -11 -11 -11 -11 -11 -11 -11 -11 -11 -11 -11 -11 -10 -10 -10 -8 -7 -7 -6 -6 -5 -5 -5 -4 -3 -3
-4 -5 -5 -5 -6 -6 -7 -7 -8 -10 -11 -11 -12 -12 -12 -12 -11 -12 -13 -13 -11 -11 -12 -12 -13 -13 -13 -13 -13 -12 -12 -12 -12 -11 -9 -8 -6 -6 -6 -6 -5 -4 -4
-4 -5 -6 -6 -7 -8 -8 -9 -10 -11 -12 -12 -12 -12 -12 -13 -13 -13 -14 -14 -14 -12 -12 -13 -13 -14 -14 -14 -14 -13 -13 -13 -13 -12 -12 -11 -9 -8 -7 -6 -6 -6 -4
-5 -6 -7 -8 -8 -9 -10 -11 -12 -13 -13 -13 -13 -13 -14 -14 -14 -14 -15 -15 -14 -14 -14 -13 -14 -14 -14 -15 -15 -14 -14 -14 -14 -13 -13 -12 -11 -10 -9 -8 -7 -7 -6
-6 -7 -8 -8 -9 -10 -11 -12 -13 -13 -13 -14 -14 -14 -14 -14 -15 -15 -15 -16 -16 -15 -15 -14 -14 -14 -15 -15 -15 -15 -14 -14 -14 -14 -14 -13 -12 -11 -11 -10 -9 -8 -7
-7 -8 -9 -10 -10 -11 -12 -13 -13 -14 -14 -14 -14 -14 -14 -15 -15 -16 -16 -16 -16 -16 -16 -16 -15 -15 -15 -15 -15 -15 -15 -14 -14 -14 -14 -13 -13 -12 -12 -11 -11 -10 -8
-8 -9 -10 -11 -11 -12 -12 -13 -13 -14 -14 -15 -15 -15 -15 -15 -16 -16 -16 -16 -16 -16 -16 -15 -16 -16 -16 -16 -16 -16 -15 -15 -15 -14 -14 -14 -13 -13 -12 -12 -12 -11 -10
-9 -10 -10 -11 -12 -12 -12 -13 -14 -14 -15 -15 -15 -15 -15 -16 -16 -16 -16 -16 -17 -17 -17 -16 -16 -16 -16 -16 -16 -16 -16 -16 -15 -15 -15 -14 -14 -13 -13 -12 -12 -12 -11
-9 -10 -11 -12 -12 -12 -13 -14 -14 -15 -15 -15 -16 -15 -16 -16 -16 -16 -16 -16 -17 -17 -17 -17 -16 -17 -17 -17 -17 -17 -17 -17 -17 -16 -16 -15 -14 -14 -13 -13 -12 -12 -12
-10 -11 -12 -12 -13 -13 -14 -14 -15 -15 -15 -15 -15 -16 -16 -16 -16 -16 -16 -16 -17 -17 -18 -18 -18 -18 -18 -18 -19 -18 -18 -18 -17 -17 -17 -16 -15 -15 -14 -13 -13 -13 -12
-11 -12 -13 -13 -13 -14 -14 -15 -15 -15 -15 -15 -16 -16 -16 -16 -16 -16 -17 -17 -17 -17 -18 -19 -19 -19 -19 -20 -20 -20 -20 -19 -19 -18 -17 -17 -16 -15 -15 -14 -14 -13 -13
-12 -13 -13 -13 -14 -15 -15 -15 -15 -15 -15 -16 -16 -16 -16 -16 -16 -17 -17 -17 -18 -18 -19 -20 -20 -21 -21 -21 -21 -21 -20 -20 -19 -19 -19 -18 -17 -16 -16 -15 -14 -14 -13
-13 -13 -13 -14 -15 -15 -15 -15 -15 -15 -16 -16 -16 -16 -16 -16 -16 -17 -17 -17 -18 -19 -19 -20 -21 -21 -21 -21 -21 -21 -21 -20 -20 -20 -19 -18 -18 -17 -16 -16 -15 -14 -14
-13 -13 -14 -14 -15 -15 -15 -15 -15 -16 -16 -16 -16 -17 -16 -16 -17 -17 -17 -17 -18 -19 -20 -20 -21 -21 -21 -21 -21 -21 -21 -21 -20 -20 -19 -18 -18 -18 -17 -16 -16 -15 -15
-13 -14 -14 -15 -15 -15 -15 -15 -16 -16 -16 -16 -17 -17 -17 -17 -17 -17 -18 -18 -19 -19 -20 -20 -21 -21 -21 -21 -21 -21 -21 -21 -20 -19 -19 -19 -18 -18 -17 -16 -16 -16 -16
-14 -14 -15 -15 -15 -16 -15 -16 -16 -16 -16 -17 -17 -17 -17 -17 -17 -18 -18 -18 -18 -19 -19 -20 -21 -21 -21 -21 -21 -20 -20 -20 -20 -20 -20 -19 -18 -18 -17 -17 -17 -16 -16

GFSMA_700_temp_030.txt.gz
Temp
1 1 0 0 0 -0 -0 -0 -1 -1 -0 -0 0 0 1 1 1 1 1 2 1 2 2 2 2 2 2 2 1 1 1 1 1 1 1 1 1 1 2 2 2 2 2
0 -0 -0 -0 -0 -1 -1 -1 -0 -1 -1 -0 -0 0 0 0 0 1 0 0 1 1 1 1 2 2 2 2 1 1 1 0 1 1 1 1 1 1 1 1 1 2 2
-0 -0 -1 -0 -0 -0 -1 -1 -0 -1 -1 -1 -1 -1 -1 -1 -0 -0 -1 -1 -0 0 -0 -0 -0 0 0 1 1 1 1 0 -0 0 1 1 0 -0 0 0 1 1 1
-0 -0 -1 -0 -0 -1 -1 -1 -1 -1 -1 -1 -1 -1 -1 -1 -1 -1 -0 -0 -0 -1 -0 0 -1 -1 -0 -0 -1 -0 1 1 0 -1 -1 -0 0 -0 -0 -0 0 0 1
-0 -1 -0 -0 -1 -1 -1 -1 -1 -2 -2 -2 -1 -1 -1 -1 -1 -1 -1 -1 -1 -2 -2 -1 -1 -2 -1 -2 -1 -1 -1 -1 -0 -0 -1 -1 -1 -0 -0 -0 -1 -0 -0
-1 -0 -1 -1 -1 -2 -2 -2 -2 -2 -2 -2 -1 -2 -1 -1 -2 -2 -2 -2 -3 -2 -3 -3 -3 -3 -3 -4 -3 -3 -3 -2 -2 -1 -1 -1 -2 -2 -1 -1 -1 -1 -1
-1 -1 -2 -2 -2 -2 -2 -2 -2 -2 -3 -2 -2 -3 -3 -3 -3 -3 -3 -3 -3 -3 -4 -4 -5 -5 -5 -5 -6 -5 -5 -4 -4 -3 -2 -2 -2 -3 -3 -2 -2 -1 -1
-1 -1 -2 -2 -2 -3 -3 -3 -3 -3 -4 -4 -4 -4 -5 -6 -8 -9 -7 -7 -7 -7 -7 -8 -8 -8 -8 -8 -7 -7 -7 -6 -6 -5 -4 -3 -3 -3 -3 -3 -2 -2 -2
-2 -2 -3 -3 -3 -4 -4 -4 -4 -5 -5 -6 -6 -6 -7 -9 -8 -9 -10 -11 -10 -9 -9 -9 -9 -9 -9 -9 -8 -8 -8 -8 -7 -7 -6 -5 -4 -4 -4 -4 -4 -3 -3
-3 -3 -3 -4 -4 -5 -5 -5 -5 -5 -6 -6 -7 -8 -9 -10 -11 -12 -13 -13 -13 -11 -10 -10 -10 -10 -10 -10 -9 -9 -9 -9 -9 -8 -8 -7 -6 -5 -5 -5 -4 -4 -3
-3 -4 -4 -5 -5 -5 -5 -6 -6 -7 -7 -8 -9 -10 -12 -12 -13 -14 -14 -14 -14 -14 -14 -11 -11 -11 -11 -11 -11 -11 -11 -11 -10 -10 -9 -8 -7 -7 -6 -5 -5 -5 -4
-4 -4 -4 -5 -5 -6 -7 -7 -8 -9 -10 -11 -11 -12 -14 -14 -14 -15 -15 -15 -14 -12 -15 -14 -15 -14 -13 -13 -13 -13 -12 -12 -12 -12 -12 -12 -10 -8 -7 -6 -6 -6 -5
-4 -5 -5 -6 -7 -8 -8 -9 -10 -12 -12 -13 -13 -13 -14 -14 -15 -15 -16 -16 -16 -13 -14 -16 -16 -16 -16 -15 -14 -14 -13 -13 -13 -13 -13 -13 -13 -12 -10 -9 -7 -6 -6
-5 -5 -6 -7 -8 -8 -9 -10 -11 -12 -12 -13 -13 -14 -14 -14 -15 -15 -15 -16 -15 -14 -14 -16 -16 -16 -15 -16 -16 -14 -14 -14 -14 -14 -14 -13 -13 -13 -12 -11 -10 -8 -7
-6 -6 -7 -7 -8 -9 -10 -11 -12 -12 -13 -13 -14 -14 -14 -15 -15 -15 -16 -18 -17 -15 -14 -15 -16 -17 -17 -15 -15 -15 -15 -14 -14 -14 -14 -14 -14 -14 -13 -12 -12 -10 -8
-6 -7 -7 -8 -9 -10 -10 -12 -12 -13 -14 -14 -14 -14 -14 -15 -15 -17 -18 -18 -18 -18 -16 -16 -17 -18 -18 -17 -15 -15 -15 -15 -15 -15 -14 -14 -14 -14 -13 -13 -13 -12 -10
-7 -7 -8 -9 -9 -10 -11 -12 -13 -13 -13 -14 -14 -14 -14 -15 -16 -17 -17 -18 -18 -19 -18 -14 -16 -17 -16 -16 -15 -15 -15 -15 -16 -15 -15 -15 -14 -14 -14 -13 -13 -12 -11
-7 -8 -9 -9 -10 -11 -12 -13 -13 -14 -14 -15 -15 -15 -15 -15 -15 -16 -16 -17 -17 -17 -17 -16 -15 -16 -16 -16 -16 -16 -16 -16 -16 -18 -17 -16 -15 -15 -14 -14 -13 -13 -12
-8 -9 -10 -10 -11 -12 -12 -13 -13 -14 -15 -15 -15 -15 -15 -15 -16 -16 -16 -16 -16 -16 -17 -16 -16 -17 -17 -18 -17 -18 -18 -18 -18 -18 -17 -16 -16 -16 -14 -14 -13 -13 -13
-10 -10 -11 -11 -12 -12 -13 -14 -14 -15 -15 -15 -15 -15 -15 -16 -16 -16 -16 -16 -17 -17 -17 -17 -17 -18 -18 -19 -20 -20 -20 -20 -18 -19 -18 -18 -18 -16 -15 -14 -14 -13 -13
-10 -11 -11 -11 -13 -13 -14 -14 -15 -15 -15 -15 -15 -16 -16 -16 -16 -16 -16 -16 -17 -17 -17 -18 -18 -20 -21 -21 -21 -21 -20 -21 -20 -20 -18 -18 -18 -18 -18 -15 -15 -14 -13
-11 -11 -12 -13 -13 -14 -14 -15 -15 -15 -15 -15 -16 -16 -16 -16 -16 -16 -16 -17 -17 -18 -18 -19 -19 -20 -20 -22 -21 -20 -20 -20 -20 -19 -18 -18 -18 -18 -18 -18 -17 -14 -13
-11 -12 -13 -13 -14 -14 -14 -15 -15 -15 -15 -16 -16 -16 -16 -16 -16 -16 -17 -17 -17 -18 -18 -19 -19 -21 -21 -20 -21 -21 -21 -20 -20 -19 -19 -19 -18 -18 -18 -18 -16 -15 -14
-12 -13 -13 -14 -14 -14 -15 -15 -15 -16 -16 -16 -16 -16 -17 -17 -17 -17 -17 -18 -18 -18 -19 -19 -20 -20 -21 -21 -21 -21 -21 -20 -20 -20 -20 -19 -19 -19 -19 -17 -16 -15 -15
-12 -13 -13 -14 -15 -15 -15 -15 -16 -16 -16 -16 -16 -17 -17 -17 -17 -17 -17 -18 -18 -18 -18 -19 -19 -20 -20 -21 -21 -21 -21 -21 -20 -20 -20 -19 -19 -19 -19 -18 -17 -16 -15
-13 -13 -14 -15 -15 -15 -15 -16 -16 -16 -16 -16 -16 -17 -17 -17 -17 -17 -18 -18 -18 -18 -18 -19 -19 -20 -20 -20 -21 -21 -21 -20 -20 -20 -20 -19 -19 -20 -19 -17 -17 -16 -16

GFSMA_700_temp_033.txt.gz
Temp
1 1 0 -0 -1 -0 -0 0 0 0 0 0 1 0 1 1 1 1 1 1 2 2 2 2 2 2 2 3 2 2 1 1 1 1 2 1 1 1 1 1 1 1 1
1 0 -0 -0 -0 0 -0 0 0 0 0 -0 -0 0 0 -0 -0 1 1 0 1 1 1 1 1 2 2 2 2 2 2 2 1 1 1 1 1 1 1 1 1 1 1
0 -0 -0 -1 -1 -0 -0 0 -0 -1 -1 -1 -1 -0 -0 -0 -1 -0 -0 -0 -0 0 1 1 1 1 1 1 1 2 2 2 1 1 1 0 1 1 1 0 1 1 1
0 -0 -0 -0 -1 -0 -0 -1 -1 -1 -1 -1 -1 -1 -1 -1 -1 -1 -1 -1 -0 -1 -1 0 1 0 0 0 1 1 1 1 1 1 1 0 -0 0 0 0 0 0 0
-0 -0 -0 -0 -0 -1 -1 -1 -1 -1 -1 -1 -1 -1 -1 -1 -1 -1 -2 -2 -2 -2 -1 -2 -2 -1 -2 -1 -1 -1 -1 -0 -0 -0 -0 0 -0 -1 -1 -0 -0 -0 0
-0 -0 -0 -0 -1 -2 -2 -2 -2 -2 -2 -2 -1 -1 -1 -1 -2 -2 -3 -5 -5 -4 -4 -3 -2 -3 -3 -3 -3 -5 -3 -3 -3 -2 -2 -1 -1 -1 -2 -2 -1 -1 -1
-0 -0 -1 -1 -1 -2 -1 -1 -1 -2 -2 -2 -2 -2 -2 -2 -4 -6 -7 -7 -5 -5 -5 -5 -5 -5 -6 -6 -7 -7 -6 -7 -6 -5 -5 -4 -3 -3 -2 -3 -2 -2 -1
-1 -1 -1 -2 -2 -2 -3 -3 -2 -3 -3 -3 -4 -4 -4 -4 -5 -8 -7 -8 -9 -10 -11 -10 -9 -10 -9 -9 -9 -9 -9 -8 -8 -8 -7 -6 -5 -4 -4 -3 -3 -3 -2
-2 -2 -2 -2 -3 -3 -3 -4 -4 -4 -4 -4 -4 -5 -6 -8 -8 -8 -8 -9 -10 -11 -12 -12 -12 -11 -11 -10 -11 -11 -10 -10 -9 -8 -8 -8 -7 -7 -6 -5 -4 -4 -4
-3 -3 -3 -3 -3 -4 -4 -4 -4 -5 -5 -6 -7 -8 -9 -10 -12 -11 -12 -12 -12 -13 -13 -13 -13 -13 -11 -11 -13 -12 -12 -10 -10 -10 -9 -9 -8 -8 -7 -6 -6 -5 -5
-3 -3 -3 -4 -4 -4 -4 -5 -5 -6 -7 -7 -9 -10 -11 -12 -13 -13 -13 -13 -13 -13 -14 -14 -14 -15 -14 -14 -13 -13 -14 -13 -11 -11 -10 -10 -10 -9 -9 -8 -7 -6 -6
-4 -4 -4 -5 -5 -5 -6 -6 -7 -8 -9 -10 -11 -12 -13 -14 -14 -14 -14 -14 -14 -12 -14 -15 -15 -15 -15 -15 -15 -15 -15 -14 -13 -12 -12 -12 -12 -11 -10 -9 -8 -8 -7
-4 -4 -4 -5 -5 -6 -6 -7 -8 -9 -10 -11 -11 -12 -12 -13 -14 -14 -15 -15 -14 -12 -12 -15 -15 -15 -15 -16 -16 -16 -16 -14 -15 -14 -13 -13 -12 -12 -12 -11 -11 -9 -8
-4 -4 -5 -5 -6 -6 -7 -8 -10 -10 -11 -11 -12 -12 -13 -14 -14 -15 -15 -15 -15 -14 -14 -16 -16 -16 -16 -16 -17 -17 -16 -15 -14 -14 -13 -13 -13 -13 -13 -13 -12 -12 -10
-5 -5 -6 -6 -7 -7 -8 -9 -10 -11 -12 -12 -12 -13 -13 -14 -14 -14 -15 -16 -16 -15 -15 -16 -17 -17 -17 -17 -17 -17 -17 -15 -14 -13 -14 -14 -14 -13 -13 -13 -13 -12 -12
-5 -6 -6 -7 -7 -8 -9 -9 -11 -12 -12 -12 -13 -13 -14 -14 -15 -15 -16 -16 -16 -16 -16 -17 -17 -17 -17 -17 -18 -17 -16 -15 -14 -14 -14 -14 -14 -14 -13 -14 -13 -13 -13
-6 -6 -7 -7 -8 -9 -9 -10 -12 -13 -13 -13 -13 -14 -14 -15 -15 -16 -17 -17 -17 -17 -17 -16 -16 -16 -17 -16 -16 -16 -16 -16 -15 -16 -15 -15 -15 -14 -14 -14 -13 -13 -13
-6 -7 -7 -8 -9 -10 -10 -11 -12 -12 -13 -13 -14 -15 -15 -16 -16 -16 -16 -16 -16 -16 -17 -17 -15 -16 -16 -16 -16 -16 -16 -18 -18 -17 -18 -17 -16 -16 -15 -14 -14 -13 -13
-7 -8 -8 -9 -10 -10 -11 -12 -12 -13 -14 -14 -15 -15 -16 -15 -15 -15 -16 -16 -16 -16 -16 -16 -16 -16 -16 -16 -17 -17 -18 -19 -19 -19 -18 -18 -17 -17 -17 -15 -15 -14 -13
-8 -9 -9 -10 -10 -11 -12 -12 -13 -14 -14 -15 -16 -15 -15 -15 -15 -16 -16 -16 -17 -16 -16 -17 -17 -17 -17 -18 -19 -19 -19 -19 -19 -20 -19 -18 -17 -17 -17 -17 -15 -15 -14
-8 -9 -10 -10 -11 -12 -12 -13 -14 -15 -15 -15 -15 -15 -15 -15 -16 -16 -16 -16 -16 -16 -17 -17 -17 -18 -18 -19 -20 -19 -19 -19 -19 -19 -19 -18 -18 -17 -17 -17 -17 -16 -14
-9 -10 -11 -11 -12 -12 -13 -14 -14 -15 -15 -15 -15 -16 -16 -16 -16 -16 -16 -16 -17 -17 -17 -17 -18 -18 -19 -20 -20 -20 -20 -19 -19 -19 -19 -19 -18 -17 -17 -17 -17 -17 -15
-10 -11 -12 -12 -12 -13 -13 -14 -15 -15 -15 -15 -16 -16 -16 -16 -16 -17 -17 -17 -17 -17 -17 -17 -17 -19 -20 -20 -20 -20 -20 -20 -20 -19 -19 -19 -18 -18 -18 -18 -18 -17 -16
-11 -12 -12 -13 -13 -13 -14 -14 -15 -15 -15 -16 -16 -16 -16 -16 -17 -17 -17 -17 -17 -18 -18 -18 -18 -19 -19 -19 -20 -20 -20 -20 -20 -20 -20 -19 -19 -18 -18 -18 -18 -17 -16
-12 -12 -13 -13 -13 -14 -14 -15 -15 -16 -16 -16 -16 -16 -16 -17 -17 -17 -17 -17 -17 -18 -18 -18 -18 -19 -19 -19 -20 -20 -21 -20 -20 -20 -19 -19 -19 -18 -18 -18 -18 -17 -16
-12 -12 -13 -14 -14 -15 -15 -15 -15 -16 -16 -16 -16 -16 -16 -16 -17 -17 -17 -17 -17 -18 -18 -18 -18 -19 -19 -19 -20 -21 -20 -20 -20 -19 -20 -19 -19 -19 -18 -18 -18 -17 -17

GFSMA_700_temp_036.txt.gz
Temp
3 2 2 0 0 1 -0 0 0 -1 0 1 0 0 1 1 1 0 1 2 1 2 2 2 2 3 2 2 2 2 1 1 1 1 1 1 1 0 1 1 1 1 2
3 2 2 0 -0 -0 -0 0 0 -0 -0 0 0 0 0 1 0 -0 0 0 1 1 2 2 2 2 2 2 2 2 2 1 1 1 1 0 1 1 0 1 1 1 1
2 1 1 0 -0 -0 0 0 -0 -0 -1 -0 0 0 0 0 -0 -0 -1 -1 -0 0 1 1 1 2 1 1 2 2 2 1 1 1 1 0 0 0 0 0 1 1 1
1 1 1 0 0 0 0 0 0 -0 0 0 0 -0 -0 -1 -1 -1 -1 -1 -1 -2 -1 -0 0 1 0 0 1 1 1 1 1 1 0 0 0 -0 0 0 -0 1 1
1 0 1 0 0 0 1 1 0 0 -0 -1 -1 -1 -1 -0 -1 -1 -2 -2 -3 -3 -2 -2 -1 -1 -1 -1 -1 -1 -1 -1 -0 0 0 0 -1 -0 -1 -1 -1 -1 0
0 0 1 0 -0 0 -0 -1 -1 -1 -1 -1 -1 -1 -1 -1 -1 -2 -2 -3 -3 -3 -3 -4 -3 -3 -2 -3 -3 -4 -3 -2 -3 -3 -3 -2 -2 -2 -3 -3 -2 -2 -2
0 0 -0 -0 -0 -1 -1 -1 -1 -1 -1 -1 -1 -1 -1 -2 -2 -4 -3 -4 -5 -6 -6 -6 -6 -7 -6 -6 -6 -7 -7 -7 -8 -8 -7 -7 -6 -5 -4 -4 -4 -3 -3
-0 -0 -1 -1 -1 -1 -2 -2 -2 -2 -2 -2 -2 -2 -2 -2 -2 -3 -5 -6 -7 -8 -9 -9 -9 -10 -10 -10 -10 -10 -11 -10 -10 -10 -10 -9 -9 -8 -7 -6 -6 -5 -4
-1 -1 -1 -1 -2 -2 -2 -3 -3 -3 -3 -3 -4 -4 -4 -4 -4 -5 -6 -7 -8 -9 -9 -10 -11 -13 -13 -12 -11 -12 -11 -11 -11 -10 -10 -10 -10 -10 -9 -8 -7 -7 -5
-1 -2 -2 -2 -2 -3 -3 -3 -4 -4 -4 -4 -5 -5 -7 -7 -7 -7 -8 -9 -10 -11 -12 -12 -12 -12 -13 -12 -12 -12 -13 -12 -11 -11 -10 -10 -10 -10 -10 -10 -9 -8 -7
-2 -2 -2 -2 -3 -3 -4 -4 -4 -5 -5 -6 -7 -7 -8 -9 -11 -12 -11 -11 -12 -12 -13 -13 -13 -13 -13 -13 -14 -15 -15 -14 -12 -12 -11 -11 -11 -11 -11 -11 -10 -9 -8
-3 -4 -3 -4 -4 -4 -5 -5 -6 -6 -7 -7 -8 -9 -11 -11 -12 -12 -13 -12 -13 -12 -13 -13 -13 -13 -14 -15 -15 -16 -16 -16 -15 -15 -13 -13 -12 -12 -12 -12 -11 -11 -9
-3 -4 -4 -4 -4 -5 -5 -6 -6 -7 -8 -8 -9 -10 -11 -12 -12 -13 -13 -13 -13 -13 -13 -13 -14 -13 -14 -15 -16 -16 -16 -16 -15 -15 -14 -14 -13 -13 -12 -12 -12 -12 -11
-3 -4 -4 -4 -5 -5 -6 -6 -7 -8 -9 -9 -11 -11 -12 -12 -12 -13 -13 -14 -14 -14 -14 -13 -14 -14 -15 -16 -16 -16 -16 -16 -15 -15 -14 -14 -13 -13 -13 -13 -13 -13 -12
-4 -4 -4 -5 -5 -6 -7 -7 -8 -9 -10 -10 -11 -12 -12 -13 -13 -13 -14 -14 -15 -15 -14 -14 -15 -15 -16 -16 -16 -16 -16 -15 -15 -15 -14 -14 -14 -13 -13 -13 -13 -13 -13
-5 -5 -5 -5 -6 -7 -7 -8 -9 -9 -11 -12 -12 -12 -13 -13 -14 -14 -14 -15 -15 -16 -15 -15 -15 -16 -16 -15 -15 -15 -15 -15 -15 -15 -14 -14 -14 -14 -13 -13 -13 -13 -14
-5 -6 -6 -6 -7 -7 -8 -9 -10 -10 -11 -12 -12 -13 -14 -14 -14 -15 -15 -15 -15 -16 -16 -15 -16 -16 -16 -16 -16 -15 -15 -15 -15 -15 -15 -15 -15 -15 -14 -14 -14 -14 -14
-6 -6 -7 -7 -8 -8 -9 -9 -10 -11 -11 -12 -13 -14 -14 -15 -15 -15 -15 -15 -15 -16 -16 -16 -15 -16 -16 -16 -16 -16 -16 -16 -16 -16 -17 -17 -17 -17 -16 -15 -15 -15 -14
-7 -7 -7 -8 -8 -9 -10 -11 -11 -12 -13 -13 -14 -14 -14 -14 -15 -15 -15 -15 -15 -15 -16 -16 -16 -16 -16 -17 -16 -16 -17 -18 -18 -19 -18 -18 -18 -18 -17 -17 -17 -17 -16
-8 -8 -8 -8 -8 -10 -11 -11 -12 -13 -13 -14 -14 -15 -15 -15 -15 -15 -15 -15 -16 -16 -17 -16 -16 -16 -16 -17 -17 -18 -18 -18 -19 -19 -19 -19 -19 -19 -18 -17 -17 -17 -17
-9 -10 -8 -9 -10 -11 -11 -12 -13 -13 -14 -14 -15 -15 -15 -15 -15 -15 -15 -16 -16 -16 -16 -16 -17 -17 -17 -17 -17 -18 -19 -19 -19 -19 -19 -19 -19 -19 -18 -17 -17 -17 -17
-10 -9 -10 -10 -11 -12 -12 -13 -13 -14 -14 -14 -15 -15 -15 -16 -16 -15 -16 -16 -17 -17 -17 -17 -17 -17 -17 -17 -18 -19 -19 -19 -19 -19 -19 -19 -19 -19 -18 -18 -17 -16 -17
-9 -10 -10 -11 -12 -12 -13 -13 -14 -14 -14 -15 -15 -15 -15 -16 -15 -16 -17 -17 -17 -17 -18 -18 -17 -17 -17 -18 -19 -19 -19 -19 -19 -20 -20 -19 -19 -19 -18 -18 -17 -18 -17
-10 -11 -11 -12 -12 -13 -13 -13 -14 -15 -14 -15 -15 -15 -16 -16 -16 -16 -17 -17 -17 -17 -18 -18 -18 -18 -18 -19 -19 -19 -20 -20 -20 -20 -20 -19 -19 -19 -18 -18 -18 -18 -17
-10 -11 -12 -12 -13 -13 -13 -14 -14 -14 -15 -15 -16 -16 -16 -16 -16 -16 -17 -17 -17 -17 -18 -18 -18 -18 -18 -19 -19 -19 -20 -20 -20 -20 -19 -20 -19 -19 -19 -18 -18 -18 -18
-11 -11 -12 -13 -13 -14 -14 -14 -15 -15 -15 -16 -16 -16 -16 -16 -16 -16 -17 -17 -17 -17 -18 -18 -18 -18 -18 -19 -19 -19 -20 -20 -20 -19 -19 -19 -19 -19 -19 -18 -18 -18 -18

GFSMA_700_temp_042.txt.gz
Temp
3 3 2 2 2 1 1 1 1 1 1 1 1 0 0 -0 0 0 1 1 1 1 1 2 2 2 2 2 2 1 1 1 1 1 1 1 2 2 2 2 2 1 1
2 2 1 1 1 1 1 0 1 1 1 0 0 0 -0 0 0 0 0 0 0 0 0 1 1 2 2 2 2 2 1 1 0 1 1 1 1 1 1 2 1 1 1
2 2 1 0 1 1 1 1 1 1 0 0 0 1 1 1 1 0 0 -0 -1 -0 -0 0 1 1 1 1 1 1 1 1 1 1 0 -0 -0 0 -0 0 1 1 1
2 1 1 1 1 1 1 1 0 0 0 1 1 1 0 -0 -0 -0 -0 -0 -0 -0 0 0 0 0 0 1 1 0 0 -0 -1 -0 -0 0 0 -0 -1 -1 -0 0 0
1 1 1 1 1 1 1 1 0 0 1 1 1 0 -0 -1 -1 -1 -1 -1 -1 -1 -1 -1 -1 -1 -1 -1 -1 -1 -1 -2 -2 -3 -3 -3 -2 -0 -0 -1 -2 -1 -0
2 2 1 1 1 1 0 0 0 0 0 0 0 -0 -0 -1 -1 -1 -1 -1 -2 -2 -3 -2 -2 -2 -2 -2 -3 -3 -3 -4 -4 -6 -8 -8 -6 -6 -5 -2 -2 -3 -2
2 2 1 1 0 0 0 0 -0 -0 -0 -0 -1 -1 -1 -1 -1 -2 -2 -2 -3 -3 -4 -4 -4 -5 -5 -5 -5 -6 -7 -8 -9 -9 -9 -9 -10 -9 -9 -8 -6 -4 -4
1 1 0 0 0 0 -0 -1 -1 -1 -1 -1 -1 -1 -2 -1 -1 -2 -2 -2 -3 -5 -5 -5 -6 -7 -8 -9 -9 -9 -9 -10 -10 -10 -10 -10 -10 -10 -10 -9 -9 -8 -7
0 0 -0 -0 -0 -1 -2 -2 -1 -2 -2 -2 -2 -3 -2 -2 -2 -3 -3 -3 -4 -5 -6 -7 -8 -9 -10 -10 -10 -10 -11 -12 -12 -11 -11 -11 -11 -11 -11 -11 -10 -10 -9
-0 -0 -0 -1 -1 -1 -2 -2 -2 -2 -2 -3 -3 -3 -4 -4 -4 -4 -4 -5 -7 -8 -9 -10 -11 -11 -11 -11 -11 -12 -12 -12 -12 -12 -12 -11 -12 -12 -12 -16 -14 -12 -10
0 -0 -1 -2 -3 -3 -3 -3 -3 -2 -3 -4 -4 -5 -5 -5 -6 -6 -5 -6 -8 -9 -11 -12 -12 -12 -12 -12 -12 -13 -13 -12 -13 -13 -13 -13 -13 -13 -13 -16 -16 -15 -12
-0 -1 -2 -2 -3 -4 -3 -3 -3 -4 -5 -5 -6 -6 -6 -6 -7 -7 -7 -8 -8 -10 -11 -12 -13 -13 -13 -13 -13 -13 -13 -13 -13 -14 -14 -14 -14 -13 -14 -14 -17 -17 -13
-1 -2 -3 -3 -3 -3 -3 -6 -6 -6 -5 -6 -6 -6 -7 -7 -7 -8 -9 -9 -9 -9 -11 -13 -13 -13 -14 -14 -14 -14 -14 -14 -14 -14 -14 -14 -14 -14 -14 -14 -14 -14 -14
-2 -2 -2 -3 -4 -6 -5 -6 -7 -6 -6 -6 -7 -8 -8 -8 -9 -9 -10 -10 -11 -12 -12 -13 -14 -14 -14 -14 -14 -14 -14 -14 -14 -14 -14 -15 -15 -14 -14 -14 -14 -14 -14
-2 -2 -3 -3 -4 -4 -5 -6 -7 -7 -7 -7 -8 -8 -9 -10 -11 -11 -12 -12 -13 -14 -13 -13 -14 -14 -14 -14 -14 -15 -14 -14 -14 -15 -15 -15 -15 -15 -15 -14 -14 -14 -14
-3 -3 -3 -4 -4 -5 -7 -7 -8 -9 -8 -9 -9 -10 -10 -11 -12 -12 -13 -14 -14 -15 -14 -14 -14 -14 -14 -14 -15 -15 -15 -15 -15 -15 -15 -15 -15 -15 -15 -14 -14 -14 -13
-3 -3 -3 -4 -5 -7 -8 -8 -9 -10 -9 -9 -10 -11 -11 -12 -12 -13 -14 -14 -14 -15 -15 -14 -15 -15 -15 -15 -15 -15 -15 -15 -15 -16 -16 -15 -15 -15 -15 -15 -15 -15 -14
-4 -4 -4 -5 -7 -8 -9 -10 -10 -11 -10 -11 -11 -12 -12 -12 -13 -14 -14 -15 -15 -15 -16 -15 -15 -15 -15 -16 -16 -16 -16 -16 -16 -16 -16 -16 -16 -16 -16 -16 -16 -16 -16
-4 -5 -5 -7 -9 -10 -11 -11 -11 -12 -11 -11 -12 -13 -13 -13 -14 -14 -14 -15 -15 -16 -15 -15 -15 -16 -16 -16 -16 -16 -16 -16 -16 -16 -16 -16 -17 -17 -17 -17 -18 -18 -18
-5 -5 -7 -9 -11 -11 -11 -13 -13 -12 -12 -12 -13 -13 -13 -14 -14 -14 -15 -15 -15 -15 -15 -15 -16 -16 -16 -17 -17 -17 -17 -17 -17 -17 -17 -17 -17 -17 -18 -18 -18 -18 -18
-5 -6 -9 -10 -10 -10 -11 -13 -12 -12 -12 -13 -13 -14 -14 -14 -15 -15 -15 -16 -15 -15 -15 -15 -16 -16 -17 -17 -17 -17 -17 -16 -17 -17 -17 -18 -18 -19 -19 -19 -19 -19 -18
-6 -8 -9 -9 -10 -11 -12 -13 -12 -13 -13 -14 -14 -14 -15 -15 -15 -16 -16 -16 -15 -15 -15 -16 -16 -17 -17 -17 -17 -17 -17 -17 -17 -18 -18 -18 -20 -19 -19 -19 -18 -18 -18
-9 -8 -9 -10 -11 -12 -12 -12 -13 -13 -14 -14 -14 -15 -15 -15 -15 -16 -16 -16 -16 -16 -16 -17 -17 -17 -17 -17 -17 -17 -18 -18 -18 -19 -19 -18 -19 -19 -19 -19 -18 -18 -18
-9 -9 -9 -10 -10 -11 -12 -12 -13 -13 -14 -14 -15 -15 -15 -16 -16 -16 -16 -16 -16 -16 -16 -17 -17 -17 -18 -18 -18 -18 -18 -18 -18 -19 -20 -18 -19 -18 -18 -19 -19 -19 -19
-9 -9 -10 -11 -11 -11 -12 -13 -13 -14 -14 -15 -15 -15 -15 -16 -16 -16 -16 -16 -16 -16 -17 -17 -17 -18 -18 -18 -18 -18 -18 -18 -18 -19 -19 -19 -18 -18 -18 -19 -19 -19 -19
-10 -11 -11 -11 -12 -12 -13 -13 -14 -14 -14 -15 -15 -15 -16 -16 -16 -16 -16 -16 -16 -16 -17 -17 -17 -18 -18 -18 -18 -18 -18 -18 -18 -18 -19 -18 -18 -18 -18 -18 -19 -19 -19

GFSMA_700_temp_048.txt.gz
Temp
2 2 2 1 1 1 1 1 1 1 1 0 0 0 0 0 0 0 1 1 1 0 0 1 1 1 1 2 2 2 1 1 1 1 1 1 2 2 2 2 2 2 2
1 1 1 1 1 1 0 0 0 1 0 -0 -0 -0 -0 -0 -0 0 0 1 0 0 0 0 0 1 1 1 1 1 1 2 2 2 1 1 1 1 2 2 2 2 2
1 1 1 1 1 -0 -0 -0 0 -0 -0 -1 -0 -0 -0 -0 0 0 0 1 0 0 0 -0 0 0 0 0 1 1 1 1 1 2 2 2 2 2 1 1 1 2 2
1 1 1 1 0 0 -0 -0 -0 -1 -1 -1 -0 -0 -0 -0 0 0 0 0 0 -0 -0 -0 -0 -0 -0 -0 -0 -0 0 1 1 1 1 1 1 1 1 2 1 1 1
1 1 1 1 1 -0 -0 -1 -1 -1 -1 -1 -1 -0 -0 -0 0 -0 -0 -1 -1 -1 -1 -1 -1 -1 -1 -1 -1 -1 -1 -1 -1 -0 -0 0 0 0 0 1 1 1 1
1 1 1 1 0 -0 -0 -1 -2 -2 -1 -1 -1 -0 -0 -1 -1 -1 -1 -1 -1 -2 -2 -2 -2 -2 -2 -2 -2 -2 -2 -2 -2 -2 -2 -1 -1 -0 -0 -0 -0 -1 -0
1 1 1 1 -0 -0 -1 -1 -1 -1 -1 -1 -0 -0 -0 -1 -1 -1 -2 -2 -2 -2 -2 -3 -3 -3 -3 -3 -3 -3 -3 -4 -4 -4 -4 -5 -5 -4 -4 -4 -4 -5 -6
1 1 1 0 0 -0 -1 -1 -1 -1 -1 -1 -1 -1 -2 -2 -2 -2 -2 -2 -2 -3 -3 -3 -3 -4 -4 -4 -5 -5 -5 -6 -6 -7 -7 -7 -7 -7 -7 -7 -7 -7 -8
1 1 1 0 0 -0 -0 -1 -1 -1 -1 -2 -2 -3 -3 -3 -2 -2 -3 -3 -4 -4 -4 -5 -5 -5 -5 -5 -6 -7 -8 -8 -9 -9 -9 -9 -9 -9 -10 -10 -10 -10 -10
1 1 1 0 0 -0 -1 -1 -1 -2 -2 -2 -3 -4 -4 -4 -4 -3 -4 -5 -5 -6 -6 -6 -6 -7 -7 -7 -8 -9 -9 -9 -10 -10 -11 -11 -12 -12 -12 -12 -12 -12 -11
1 1 0 0 -0 -1 -1 -1 -2 -2 -3 -4 -4 -5 -4 -4 -5 -5 -4 -6 -7 -7 -7 -8 -8 -8 -9 -10 -10 -11 -11 -12 -12 -12 -12 -12 -12 -12 -12 -12 -12 -12 -12
1 0 0 -0 -1 -2 -3 -3 -3 -3 -3 -4 -5 -5 -5 -5 -5 -6 -7 -7 -8 -8 -8 -9 -9 -10 -11 -11 -12 -12 -13 -13 -13 -13 -13 -13 -13 -13 -13 -13 -13 -12 -12
0 -0 -1 -1 -1 -2 -3 -3 -3 -4 -5 -5 -5 -5 -6 -7 -7 -8 -8 -9 -9 -9 -9 -10 -11 -12 -12 -13 -13 -14 -13 -13 -13 -13 -13 -13 -13 -13 -13 -13 -13 -13 -13
-0 0 -2 -3 -2 -3 -4 -3 -5 -5 -6 -5 -5 -6 -7 -8 -9 -10 -10 -10 -10 -11 -10 -11 -12 -13 -14 -14 -14 -14 -14 -14 -14 -14 -14 -14 -13 -13 -13 -13 -13 -13 -13
0 -2 -2 -3 -4 -4 -4 -5 -6 -6 -6 -6 -7 -8 -8 -9 -10 -11 -11 -11 -11 -11 -11 -12 -13 -14 -14 -14 -14 -14 -14 -14 -14 -14 -14 -14 -14 -14 -14 -14 -14 -14 -14
-1 -2 -3 -3 -4 -4 -5 -5 -6 -6 -6 -7 -7 -8 -9 -10 -11 -11 -11 -12 -12 -13 -12 -13 -13 -14 -14 -14 -15 -14 -14 -14 -14 -14 -15 -15 -15 -15 -15 -15 -15 -15 -15
-2 -2 -3 -4 -4 -4 -5 -5 -5 -6 -7 -7 -8 -9 -10 -11 -12 -12 -12 -12 -13 -13 -13 -13 -14 -14 -15 -15 -15 -15 -15 -15 -15 -15 -15 -16 -16 -15 -16 -16 -16 -15 -15
-2 -2 -3 -4 -4 -4 -5 -5 -7 -7 -7 -8 -9 -10 -11 -11 -11 -12 -12 -13 -14 -14 -14 -14 -14 -14 -15 -15 -15 -15 -15 -16 -16 -16 -16 -16 -16 -16 -16 -16 -16 -15 -15
-3 -3 -3 -4 -5 -5 -5 -7 -7 -7 -8 -8 -10 -11 -11 -11 -12 -12 -13 -14 -14 -15 -15 -15 -15 -15 -15 -15 -15 -15 -16 -16 -17 -17 -17 -17 -16 -17 -16 -16 -16 -16 -16
-3 -3 -4 -4 -5 -7 -7 -7 -7 -8 -9 -9 -10 -10 -11 -11 -12 -13 -14 -14 -15 -15 -15 -15 -15 -15 -15 -15 -15 -15 -16 -16 -17 -17 -17 -17 -17 -16 -17 -17 -17 -17 -17
-3 -4 -4 -5 -7 -7 -7 -7 -8 -9 -9 -10 -11 -11 -11 -12 -13 -13 -14 -15 -15 -15 -16 -16 -15 -16 -16 -16 -15 -16 -16 -16 -17 -17 -17 -17 -18 -17 -17 -17 -18 -18 -18
-3 -5 -6 -7 -7 -7 -7 -8 -9 -10 -10 -11 -11 -11 -12 -12 -13 -13 -14 -15 -15 -15 -16 -16 -16 -16 -16 -16 -15 -16 -16 -17 -17 -17 -17 -17 -18 -18 -18 -18 -18 -18 -18
-4 -7 -7 -7 -7 -7 -8 -9 -10 -11 -11 -11 -11 -12 -12 -13 -13 -14 -15 -15 -15 -16 -16 -16 -16 -16 -16 -16 -15 -16 -16 -17 -17 -18 -17 -17 -18 -18 -18 -18 -18 -18 -18
-7 -6 -7 -7 -8 -9 -9 -10 -11 -11 -11 -11 -12 -12 -13 -13 -14 -15 -15 -15 -16 -16 -16 -16 -16 -16 -16 -16 -16 -16 -16 -16 -17 -18 -18 -17 -18 -18 -18 -19 -19 -19 -19
-7 -7 -8 -8 -9 -9 -10 -10 -11 -11 -11 -12 -12 -13 -13 -14 -15 -15 -15 -16 -16 -16 -16 -16 -17 -17 -16 -16 -16 -16 -16 -16 -17 -18 -18 -18 -18 -18 -18 -18 -19 -19 -19
-7 -8 -8 -9 -9 -9 -10 -11 -11 -12 -12 -12 -13 -13 -14 -14 -15 -15 -16 -16 -16 -17 -17 -17 -17 -17 -17 -17 -16 -16 -17 -16 -17 -17 -18 -18 -18 -19 -18 -18 -18 -19 -19

GFSMA_700_temp_051.txt.gz
Temp
1 2 1 1 1 1 1 1 1 0 1 1 0 0 0 0 0 0 -0 -0 0 0 0 0 0 0 1 1 1 1 1 1 1 1 1 1 1 2 2 2 2 2 2
1 1 1 1 1 1 1 1 0 0 0 -0 -0 -0 -0 -0 -0 -0 -0 -0 0 0 -0 -0 -0 -0 -0 0 0 1 1 1 1 1 1 1 1 1 1 2 2 2 2
1 1 1 1 1 1 0 -0 -0 -0 -1 -1 -0 -1 -0 -0 -0 -0 0 0 0 0 0 -0 -1 -0 -0 -0 -0 0 0 0 1 1 1 1 1 1 1 1 1 1 2
1 1 1 1 1 1 0 -0 -0 -1 -1 -1 -1 -1 -1 -1 -0 0 0 -0 -1 -1 -1 -1 -1 -1 -1 -1 -1 -1 -1 -0 -0 0 0 0 1 1 1 1 1 1 1
1 1 0 1 1 0 0 -0 -1 -1 -1 -1 -1 -1 -1 -1 -1 -1 -1 -1 -1 -1 -1 -1 -1 -1 -2 -2 -2 -2 -2 -1 -1 -1 -1 -1 -1 -0 0 0 0 0 0
1 1 1 1 0 0 0 -0 -1 -1 -1 -1 -1 -1 -1 -1 -1 -1 -1 -2 -2 -2 -2 -2 -2 -2 -2 -3 -3 -3 -2 -2 -2 -3 -3 -3 -3 -3 -2 -2 -1 -1 -0
1 1 0 0 0 0 0 -0 -1 -1 -1 -1 -1 -1 -1 -2 -1 -2 -2 -2 -2 -2 -2 -2 -2 -3 -3 -3 -3 -3 -3 -3 -3 -4 -4 -4 -4 -4 -4 -4 -5 -5 -4
1 1 0 1 1 0 0 -0 -1 -1 -1 -1 -2 -2 -2 -2 -2 -2 -2 -3 -2 -2 -2 -3 -2 -3 -3 -3 -3 -4 -4 -4 -5 -6 -6 -6 -6 -7 -7 -7 -7 -7 -7
1 0 0 1 0 0 -0 -0 -0 -1 -2 -2 -2 -2 -2 -3 -2 -2 -3 -3 -3 -4 -4 -4 -4 -4 -5 -5 -5 -6 -6 -6 -6 -7 -8 -8 -8 -9 -9 -9 -9 -9 -9
1 1 0 1 0 0 -0 -1 -1 -2 -2 -3 -3 -3 -3 -2 -3 -3 -4 -4 -4 -5 -5 -5 -6 -7 -7 -7 -8 -8 -8 -8 -8 -9 -10 -10 -10 -11 -11 -11 -11 -11 -11
1 1 1 1 0 -0 -1 -1 -2 -3 -3 -3 -4 -3 -3 -4 -5 -5 -5 -5 -5 -6 -7 -8 -8 -8 -9 -9 -9 -9 -9 -10 -10 -11 -11 -11 -12 -12 -12 -12 -12 -11 -11
1 1 1 0 -0 -2 -2 -2 -2 -3 -4 -3 -4 -4 -4 -5 -5 -5 -5 -5 -6 -7 -8 -9 -10 -10 -10 -10 -10 -11 -11 -11 -11 -12 -12 -12 -12 -12 -12 -12 -12 -12 -12
1 1 0 -1 -2 -2 -2 -3 -3 -3 -4 -4 -4 -5 -5 -5 -5 -6 -7 -7 -8 -9 -9 -10 -11 -11 -11 -11 -12 -12 -12 -12 -12 -13 -13 -13 -13 -13 -13 -13 -13 -12 -12
-1 -1 -2 -2 -2 -2 -3 -4 -3 -4 -4 -4 -4 -5 -6 -6 -6 -7 -8 -9 -9 -10 -10 -11 -11 -11 -12 -12 -13 -13 -13 -14 -13 -13 -14 -13 -13 -13 -13 -13 -13 -13 -13
-0 -1 -2 -2 -2 -3 -3 -4 -3 -4 -4 -5 -5 -6 -6 -6 -7 -8 -9 -10 -10 -10 -10 -11 -12 -12 -13 -13 -13 -14 -14 -14 -14 -14 -14 -13 -13 -14 -14 -14 -14 -14 -14
-1 -1 -2 -3 -2 -2 -4 -4 -5 -4 -5 -6 -6 -6 -6 -7 -8 -9 -10 -10 -11 -11 -11 -13 -13 -13 -14 -14 -14 -14 -14 -14 -14 -14 -14 -14 -14 -15 -14 -14 -14 -15 -15
-2 -2 -2 -3 -4 -4 -3 -4 -4 -5 -6 -6 -6 -6 -7 -8 -9 -9 -10 -11 -11 -12 -12 -13 -13 -14 -14 -15 -15 -15 -15 -15 -14 -14 -14 -15 -15 -15 -15 -15 -15 -15 -15
-3 -3 -2 -2 -3 -4 -4 -4 -5 -7 -6 -6 -7 -7 -8 -9 -9 -10 -11 -11 -12 -12 -13 -13 -14 -14 -15 -15 -15 -15 -15 -15 -15 -15 -15 -16 -16 -16 -16 -16 -16 -16 -16
-2 -1 -2 -4 -3 -4 -5 -5 -6 -6 -6 -7 -7 -8 -9 -10 -10 -11 -11 -12 -12 -13 -14 -14 -14 -15 -15 -15 -15 -16 -15 -16 -16 -16 -16 -16 -16 -17 -16 -16 -16 -16 -16
-3 -3 -4 -4 -4 -4 -6 -7 -6 -6 -7 -8 -8 -9 -10 -10 -11 -11 -12 -12 -13 -14 -14 -14 -15 -15 -15 -16 -16 -16 -16 -16 -16 -16 -16 -16 -17 -17 -16 -17 -17 -17 -17
-4 -4 -4 -4 -5 -6 -6 -7 -7 -7 -8 -8 -9 -10 -11 -11 -11 -12 -12 -13 -13 -14 -15 -15 -15 -15 -16 -16 -16 -16 -16 -16 -16 -16 -16 -17 -18 -17 -17 -17 -17 -17 -17
-3 -4 -4 -5 -7 -7 -8 -7 -7 -8 -9 -9 -10 -11 -11 -11 -12 -12 -13 -13 -14 -15 -15 -15 -15 -16 -16 -16 -16 -16 -16 -16 -16 -16 -16 -16 -18 -17 -18 -18 -18 -18 -18
-3 -4 -6 -6 -7 -8 -8 -8 -9 -9 -10 -10 -11 -11 -12 -12 -13 -13 -13 -14 -14 -15 -15 -16 -16 -16 -16 -16 -16 -16 -16 -16 -16 -16 -16 -16 -17 -17 -18 -18 -18 -18 -18
-5 -6 -6 -7 -8 -8 -9 -9 -10 -10 -10 -11 -11 -12 -12 -12 -13 -14 -14 -14 -15 -15 -15 -16 -16 -16 -16 -16 -17 -16 -16 -16 -16 -16 -17 -16 -17 -17 -18 -18 -19 -18 -18
-6 -7 -7 -8 -8 -9 -10 -10 -10 -10 -11 -11 -12 -12 -13 -13 -14 -14 -14 -15 -15 -15 -16 -16 -16 -16 -16 -17 -17 -17 -17 -16 -16 -16 -17 -16 -17 -17 -17 -18 -18 -19 -19
-7 -8 -8 -8 -9 -9 -10 -10 -11 -11 -11 -12 -12 -12 -13 -14 -14 -15 -15 -15 -16 -16 -17 -17 -17 -17 -17 -17 -17 -17 -17 -16 -16 -16 -17 -16 -17 -18 -16 -17 -18 -18 -19

GFSMA_700_temp_057.txt.gz
Temp
1 1 1 1 1 1 1 1 1 0 0 1 1 1 1 1 1 1 1 0 0 1 1 1 1 0 0 0 0 0 0 0 0 0 0 0 1 1 1 1 0 0 1
0 1 1 1 1 1 1 0 1 0 0 0 0 1 0 0 -0 -0 -0 0 0 0 0 0 1 1 0 0 0 0 0 0 0 0 -0 -0 -0 -0 0 1 1 1 0
0 0 1 1 0 0 0 1 1 1 1 1 0 0 -0 -1 -1 -1 -1 -0 0 0 0 -0 0 -0 -0 -0 -0 -0 -0 -0 -0 -0 -0 -0 -0 -0 -0 -0 -0 0 0
0 0 1 0 0 0 1 1 1 1 1 0 -0 -0 -1 -1 -1 -1 -1 -1 -1 -1 -0 -0 -0 -0 -1 -1 -1 -1 -1 -1 -1 -1 -1 -1 -1 -1 -1 -0 0 0 0
1 0 0 0 0 0 1 1 1 1 0 -0 -0 -1 -1 -1 -1 -1 -1 -1 -1 -1 -1 -0 -1 -1 -1 -1 -1 -2 -2 -2 -2 -2 -2 -2 -1 -1 -1 -1 -1 -1 -1
1 0 0 0 0 0 1 1 0 1 0 -0 -1 -1 -1 -1 -1 -1 -1 -1 -0 -1 -1 -2 -1 -1 -1 -1 -1 -1 -2 -2 -2 -2 -2 -3 -3 -3 -3 -3 -3 -3 -3
1 1 0 0 0 0 0 1 1 1 0 -0 -1 -1 -1 -0 -0 -0 -1 -1 -1 -1 -1 -2 -2 -2 -2 -2 -2 -2 -2 -2 -2 -3 -3 -4 -4 -5 -5 -6 -6 -7 -6
1 0 0 0 0 0 0 1 1 0 -0 -0 -1 -2 -2 -3 -3 -2 -1 -1 -1 -2 -2 -2 -2 -2 -2 -2 -3 -3 -2 -3 -4 -4 -5 -5 -6 -6 -7 -7 -8 -9 -9
1 0 0 0 0 0 1 1 0 -0 -1 -1 -1 -2 -3 -3 -3 -4 -3 -2 -2 -2 -2 -3 -3 -3 -3 -3 -4 -4 -4 -4 -5 -5 -6 -6 -6 -7 -8 -9 -9 -10 -10
0 0 0 0 -0 0 1 0 -0 -1 -1 -2 -1 -2 -3 -3 -3 -3 -4 -4 -4 -3 -3 -3 -3 -4 -4 -5 -5 -5 -5 -6 -6 -7 -7 -7 -7 -8 -9 -10 -11 -11 -12
1 1 1 0 1 0 -0 -0 -1 -1 -2 -2 -2 -2 -3 -3 -3 -3 -3 -3 -5 -5 -6 -5 -4 -5 -6 -6 -6 -6 -6 -7 -7 -8 -8 -9 -9 -10 -11 -12 -12 -12 -12
1 1 1 1 1 -0 0 -0 -1 -1 -2 -2 -2 -3 -3 -4 -4 -5 -5 -5 -5 -5 -5 -6 -6 -6 -6 -7 -7 -7 -7 -8 -8 -9 -10 -11 -11 -12 -12 -13 -13 -13 -13
1 1 1 1 1 -0 -0 -1 -1 -2 -2 -2 -2 -3 -4 -4 -4 -5 -5 -5 -5 -5 -6 -6 -7 -7 -7 -8 -8 -8 -8 -9 -9 -10 -11 -12 -12 -13 -13 -13 -13 -13 -13
1 1 1 0 1 -0 -0 -1 -1 -2 -2 -2 -2 -3 -3 -4 -5 -5 -6 -6 -6 -6 -6 -7 -8 -9 -8 -8 -9 -9 -10 -10 -10 -11 -12 -13 -13 -14 -14 -14 -14 -14 -14
1 1 1 -0 -0 -1 -2 -1 -2 -3 -3 -2 -4 -4 -4 -4 -5 -6 -6 -6 -6 -6 -6 -7 -9 -11 -11 -11 -12 -11 -11 -11 -12 -12 -13 -14 -14 -14 -14 -14 -14 -14 -14
1 1 0 -1 -1 -1 -1 -1 -2 -2 -3 -3 -4 -5 -4 -5 -7 -8 -7 -6 -6 -7 -7 -8 -9 -11 -13 -13 -13 -12 -12 -12 -12 -13 -13 -14 -14 -14 -14 -14 -14 -14 -14
1 1 0 -0 -1 -1 -1 -1 -2 -3 -3 -3 -4 -4 -5 -6 -7 -8 -7 -7 -7 -8 -8 -8 -11 -12 -13 -14 -14 -14 -13 -13 -13 -14 -14 -14 -14 -14 -14 -14 -14 -14 -15
1 0 -1 -1 -1 -1 -2 -2 -3 -2 -3 -4 -5 -6 -6 -7 -8 -7 -8 -8 -8 -9 -10 -10 -10 -13 -14 -14 -15 -15 -15 -14 -14 -14 -15 -15 -15 -14 -15 -14 -14 -15 -16
0 -1 -0 -1 -1 -1 -2 -3 -3 -4 -4 -4 -5 -6 -6 -7 -8 -8 -8 -9 -9 -11 -13 -13 -13 -14 -14 -15 -15 -15 -16 -16 -16 -15 -15 -15 -15 -14 -15 -15 -15 -15 -16
-0 -1 -1 -1 -2 -2 -2 -3 -3 -4 -5 -6 -6 -6 -7 -8 -8 -9 -9 -10 -10 -11 -12 -13 -13 -14 -14 -15 -16 -16 -16 -17 -17 -17 -16 -16 -15 -15 -15 -15 -15 -15 -16
-0 -1 -2 -2 -3 -3 -4 -5 -4 -5 -6 -6 -6 -7 -8 -8 -8 -9 -10 -10 -11 -12 -12 -13 -13 -13 -14 -15 -15 -16 -16 -17 -17 -17 -16 -16 -16 -15 -15 -15 -15 -16 -16
-1 -1 -2 -3 -4 -4 -5 -5 -5 -5 -6 -7 -7 -8 -8 -9 -9 -10 -10 -11 -11 -12 -12 -13 -14 -14 -15 -15 -16 -16 -16 -17 -17 -17 -17 -16 -16 -16 -16 -16 -16 -16 -16
-1 -2 -3 -3 -4 -5 -5 -6 -6 -6 -6 -7 -8 -8 -9 -10 -10 -11 -11 -12 -12 -13 -13 -14 -14 -15 -15 -15 -16 -16 -17 -17 -17 -17 -17 -16 -16 -16 -16 -16 -16 -16 -16
-2 -3 -3 -4 -5 -5 -6 -6 -6 -7 -7 -8 -9 -9 -10 -10 -10 -11 -12 -13 -13 -14 -14 -15 -15 -15 -16 -16 -16 -17 -17 -17 -17 -17 -17 -16 -16 -16 -16 -16 -16 -16 -16
-3 -3 -4 -5 -6 -6 -6 -7 -8 -8 -9 -9 -9 -10 -10 -10 -11 -11 -12 -13 -13 -14 -15 -15 -16 -16 -16 -16 -16 -17 -17 -17 -17 -17 -17 -17 -17 -16 -16 -16 -16 -16 -16
-4 -5 -6 -6 -7 -8 -7 -8 -9 -9 -9 -10 -10 -10 -10 -11 -11 -12 -13 -13 -15 -15 -15 -16 -16 -16 -16 -16 -16 -17 -17 -17 -17 -17 -17 -18 -17 -17 -16 -16 -16 -16 -17

GFSMA_700_temp_060.txt.gz
Temp
0 -0 1 1 1 1 1 1 1 1 1 1 0 1 0 0 -0 1 1 1 1 1 1 1 1 1 1 1 1 0 0 0 0 0 0 0 1 1 1 1 1 1 0
-0 0 1 0 1 1 1 1 1 1 1 0 1 0 0 0 0 1 1 0 0 0 0 1 1 0 0 0 0 -0 0 0 0 0 0 0 0 -0 -0 0 0 1 1
-0 1 1 1 1 1 1 1 1 1 1 1 0 1 0 -0 0 -0 0 1 0 0 0 0 0 0 0 0 -0 -0 -0 -0 -0 -0 0 0 0 0 0 0 0 0 0
0 0 1 1 0 0 1 1 1 0 1 1 1 1 0 0 -0 -0 -1 -1 -0 0 0 0 0 0 0 -0 -1 -1 -1 -1 -1 -1 -1 -1 -1 -1 -1 -1 -1 -1 -1
0 1 0 -0 -0 0 1 1 0 0 0 0 1 0 -0 -0 -0 -0 -0 -1 -1 -1 -0 -0 -1 -1 -1 -1 -1 -1 -1 -1 -1 -2 -2 -2 -2 -2 -2 -2 -2 -2 -2
0 -0 0 -0 0 0 0 0 0 0 0 0 0 0 0 -0 -1 -1 -0 -0 -1 -1 -1 -1 -1 -0 -0 -0 -0 -1 -1 -1 -2 -2 -2 -2 -2 -2 -2 -3 -3 -3 -4
0 -0 -0 0 0 0 0 0 -0 0 -0 -0 0 -1 -1 -1 -0 -0 -1 -1 -1 -1 -1 -1 -1 -1 -1 -1 -1 -1 -1 -2 -3 -3 -3 -3 -3 -4 -4 -4 -4 -5 -5
1 1 1 0 0 1 0 0 -1 -1 -1 -0 -0 -1 -1 -2 -2 -2 -2 -3 -2 -2 -2 -2 -2 -2 -2 -2 -2 -2 -2 -3 -4 -4 -4 -4 -4 -5 -5 -6 -6 -6 -6
1 1 1 1 0 0 0 0 -0 -1 -1 -1 -1 -1 -2 -2 -2 -3 -3 -4 -4 -3 -3 -2 -3 -2 -3 -3 -3 -3 -3 -4 -5 -6 -6 -6 -6 -6 -7 -7 -7 -7 -8
2 1 1 1 0 1 0 0 -0 -1 -1 -1 -1 -1 -1 -2 -3 -3 -4 -4 -4 -5 -4 -4 -3 -3 -3 -4 -4 -5 -5 -6 -6 -6 -7 -7 -7 -8 -8 -8 -8 -9 -9
1 1 1 1 1 0 0 0 -0 -1 -0 -1 -1 -2 -2 -2 -2 -3 -4 -4 -4 -4 -5 -5 -5 -5 -4 -5 -5 -5 -6 -6 -7 -7 -7 -8 -8 -9 -9 -10 -10 -11 -12
1 1 1 1 1 1 0 -0 -0 -1 -1 -1 -1 -2 -2 -2 -3 -3 -4 -4 -4 -5 -6 -6 -6 -5 -5 -6 -6 -6 -6 -7 -7 -8 -8 -9 -10 -10 -11 -11 -12 -12 -13
2 1 1 1 1 0 0 -0 -0 -1 -1 -1 -2 -2 -3 -3 -4 -4 -4 -5 -4 -5 -7 -7 -6 -6 -6 -6 -7 -7 -7 -7 -7 -8 -9 -10 -11 -11 -11 -12 -13 -13 -14
2 2 2 2 1 1 -0 -0 -1 -1 -1 -1 -2 -2 -3 -3 -4 -4 -4 -4 -5 -6 -6 -6 -6 -7 -8 -9 -8 -8 -7 -8 -8 -9 -10 -11 -12 -12 -13 -13 -14 -14 -14
2 2 2 1 1 1 0 -0 -1 -1 -1 -2 -2 -2 -3 -3 -4 -4 -5 -5 -6 -6 -6 -6 -7 -8 -9 -10 -10 -9 -9 -9 -9 -10 -11 -12 -13 -13 -14 -14 -14 -14 -14
2 2 1 1 1 0 -0 -0 -1 -2 -2 -2 -3 -3 -3 -4 -4 -5 -6 -6 -6 -6 -7 -7 -7 -8 -9 -10 -11 -12 -12 -12 -12 -12 -13 -13 -13 -13 -14 -14 -15 -14 -14
2 2 1 1 0 0 -0 -1 -2 -2 -2 -2 -3 -3 -4 -4 -4 -5 -6 -7 -7 -8 -8 -7 -8 -9 -9 -11 -12 -13 -14 -14 -14 -14 -14 -14 -14 -14 -14 -15 -15 -15 -14
2 1 1 0 -1 -1 -1 -1 -2 -3 -3 -3 -3 -4 -5 -6 -6 -6 -5 -7 -7 -8 -9 -9 -9 -9 -10 -11 -13 -13 -14 -15 -15 -14 -15 -16 -15 -15 -15 -15 -15 -15 -15
2 1 0 -0 -1 -1 -2 -2 -3 -3 -3 -4 -5 -4 -5 -6 -6 -6 -7 -7 -8 -9 -10 -11 -11 -11 -12 -13 -13 -13 -14 -14 -14 -15 -15 -16 -15 -16 -16 -15 -15 -15 -15
1 0 -0 -1 -1 -1 -2 -3 -3 -4 -4 -4 -5 -5 -6 -6 -7 -7 -8 -9 -9 -10 -10 -12 -12 -12 -13 -13 -13 -14 -14 -15 -15 -15 -16 -15 -16 -17 -16 -15 -16 -15 -15
1 -0 -1 -1 -2 -3 -3 -4 -4 -5 -5 -6 -6 -6 -7 -7 -8 -8 -9 -9 -10 -10 -11 -11 -11 -12 -13 -14 -14 -14 -15 -15 -15 -15 -16 -15 -16 -16 -16 -16 -16 -16 -16
1 -0 -1 -1 -1 -2 -3 -5 -5 -5 -6 -6 -6 -7 -7 -8 -9 -9 -9 -10 -10 -11 -11 -12 -13 -14 -14 -14 -14 -15 -15 -15 -15 -16 -16 -16 -16 -17 -17 -17 -16 -16 -16
-0 -1 -1 -1 -2 -3 -3 -5 -5 -5 -6 -6 -7 -7 -8 -8 -9 -9 -10 -10 -10 -10 -11 -12 -14 -14 -14 -14 -15 -15 -15 -15 -15 -16 -16 -16 -17 -17 -17 -16 -16 -16 -16
-1 -1 -2 -2 -3 -3 -4 -5 -5 -6 -6 -7 -7 -8 -8 -9 -10 -10 -10 -10 -10 -11 -11 -13 -15 -15 -15 -15 -16 -15 -15 -16 -16 -16 -16 -17 -17 -17 -17 -16 -16 -17 -16
-1 -2 -2 -3 -3 -4 -4 -5 -6 -6 -7 -7 -8 -9 -9 -10 -10 -10 -10 -10 -10 -11 -12 -13 -14 -15 -15 -16 -16 -16 -16 -16 -16 -16 -16 -17 -17 -17 -17 -16 -17 -17 -16
-2 -3 -3 -4 -4 -5 -5 -6 -7 -7 -8 -8 -9 -9 -10 -10 -10 -10 -11 -11 -11 -11 -13 -13 -14 -15 -16 -16 -16 -16 -16 -16 -16 -17 -17 -17 -17 -17 -17 -17 -17 -17 -17

GFSMA_700_temp_063.txt.gz
Temp
-1 -0 1 2 1 1 1 1 1 2 1 1 1 1 1 1 1 1 1 1 1 2 2 1 1 1 1 1 1 1 1 1 0 0 0 0 0 0 0 1 1 1 0
-1 1 1 1 1 0 1 1 1 1 1 1 1 0 0 0 1 1 1 1 1 1 1 1 1 1 1 1 0 0 0 0 0 0 0 0 1 0 0 0 0 0 1
-1 0 1 1 1 0 1 1 1 1 1 0 1 0 -0 -0 0 1 1 1 0 1 1 0 1 0 0 0 0 -0 -0 -0 0 0 0 0 0 0 0 0 -0 -1 -0
-0 1 0 1 1 1 1 1 1 1 1 1 0 0 -0 0 -0 0 0 0 0 1 1 0 0 -0 -0 -0 -0 -1 -1 -1 -1 -1 -0 -0 -0 -0 -1 -1 -1 -1 -1
1 1 0 0 1 1 0 0 0 1 1 1 0 1 1 0 0 0 -0 -0 0 0 -0 -0 -0 -1 -1 -1 -1 -1 -1 -1 -1 -1 -1 -1 -2 -2 -2 -2 -2 -2 -2
1 1 0 0 0 1 0 -0 0 0 -0 -0 -0 1 0 0 0 0 0 -0 -0 -0 -1 -1 -1 -1 -1 -1 -1 -1 -2 -2 -2 -2 -2 -2 -2 -2 -3 -3 -4 -4 -4
1 1 0 1 0 0 0 -0 0 -0 -1 -1 -1 -1 0 0 0 -0 -0 -0 -0 -0 -1 -1 -2 -2 -1 -1 -2 -2 -2 -3 -3 -3 -3 -3 -3 -3 -4 -4 -4 -5 -5
2 1 -0 0 1 1 1 1 0 0 -1 -1 -1 -1 -2 -1 -1 -1 -1 -1 -2 -1 -1 -2 -2 -2 -2 -2 -2 -2 -3 -3 -3 -4 -4 -4 -5 -5 -5 -6 -6 -6 -7
1 1 0 -0 0 0 0 0 0 -0 -0 -1 -1 -1 -1 -1 -2 -2 -2 -2 -3 -3 -3 -3 -3 -3 -3 -3 -3 -3 -3 -3 -4 -5 -5 -6 -6 -6 -7 -7 -7 -8 -8
2 1 1 1 1 1 1 1 1 0 0 -1 -1 -1 -1 -2 -2 -2 -2 -3 -3 -3 -4 -3 -3 -3 -3 -4 -4 -4 -4 -5 -5 -6 -6 -7 -7 -7 -8 -8 -8 -8 -8
2 1 1 1 1 1 0 0 0 0 -0 -0 -1 -1 -1 -1 -2 -2 -3 -3 -4 -4 -4 -4 -5 -5 -5 -5 -5 -5 -5 -5 -6 -6 -7 -7 -8 -8 -9 -9 -9 -9 -10
1 1 1 1 1 1 0 0 0 -0 0 -0 -1 -1 -1 -2 -2 -3 -3 -3 -4 -4 -5 -4 -4 -5 -6 -7 -6 -6 -6 -6 -6 -7 -7 -8 -8 -9 -10 -10 -10 -11 -11
2 1 1 1 1 1 0 1 0 -0 -1 -1 -1 -1 -2 -2 -2 -3 -3 -3 -4 -4 -5 -5 -5 -6 -6 -8 -7 -7 -7 -7 -7 -8 -8 -9 -10 -10 -11 -11 -11 -12 -12
2 2 1 1 1 1 1 0 0 -0 -1 -1 -2 -2 -2 -2 -3 -3 -3 -4 -4 -4 -5 -5 -6 -7 -8 -8 -8 -7 -8 -8 -9 -9 -10 -10 -10 -11 -12 -12 -13 -13 -13
2 1 2 1 2 1 1 1 0 -1 -0 -1 -2 -2 -2 -2 -3 -4 -4 -4 -5 -5 -5 -5 -6 -7 -8 -8 -9 -9 -9 -10 -10 -11 -11 -12 -12 -13 -14 -13 -13 -13 -14
1 2 2 2 2 1 1 0 0 -0 -1 -2 -2 -2 -3 -4 -3 -4 -5 -5 -5 -5 -5 -5 -6 -7 -8 -9 -9 -10 -10 -11 -11 -12 -12 -12 -13 -14 -14 -14 -14 -14 -15
2 2 2 2 1 1 0 -1 -2 -1 -2 -3 -3 -5 -4 -3 -4 -5 -5 -6 -6 -6 -6 -6 -7 -8 -8 -9 -10 -10 -11 -12 -13 -13 -13 -13 -14 -14 -14 -14 -15 -15 -15
2 2 2 1 1 0 -1 -1 -2 -2 -2 -3 -3 -4 -4 -4 -5 -5 -6 -6 -6 -7 -7 -7 -7 -8 -9 -10 -11 -12 -13 -13 -13 -13 -13 -14 -14 -14 -15 -15 -15 -15 -15
2 2 2 1 1 -0 -1 -1 -2 -2 -3 -4 -3 -3 -4 -5 -6 -5 -6 -6 -7 -8 -8 -9 -8 -9 -9 -11 -12 -13 -13 -13 -13 -14 -14 -14 -15 -14 -15 -15 -15 -15 -16
3 2 2 1 0 -1 -1 -1 -2 -3 -4 -4 -5 -5 -5 -6 -6 -6 -7 -7 -8 -8 -9 -9 -9 -9 -10 -10 -13 -13 -14 -14 -14 -14 -14 -15 -15 -15 -15 -16 -16 -16 -16
2 2 1 1 0 -0 -2 -2 -2 -4 -5 -5 -6 -5 -6 -6 -6 -7 -7 -7 -8 -9 -9 -10 -10 -10 -10 -11 -12 -13 -14 -14 -14 -14 -15 -15 -15 -16 -16 -16 -16 -16 -16
2 2 1 1 -0 -1 -2 -2 -3 -3 -4 -6 -6 -6 -6 -7 -7 -7 -8 -9 -9 -9 -10 -10 -10 -11 -11 -12 -13 -14 -14 -15 -15 -15 -15 -14 -15 -16 -16 -16 -17 -16 -16
2 1 1 -0 -1 -1 -2 -2 -3 -4 -5 -6 -6 -6 -7 -7 -8 -8 -8 -9 -9 -10 -10 -10 -11 -11 -12 -12 -13 -14 -15 -15 -15 -15 -15 -15 -15 -16 -16 -16 -16 -16 -16
1 0 -0 -1 -1 -2 -2 -3 -4 -5 -6 -6 -6 -7 -7 -8 -8 -9 -9 -9 -9 -10 -10 -11 -11 -11 -12 -13 -14 -15 -15 -16 -16 -15 -15 -16 -16 -16 -16 -16 -16 -17 -17
0 -0 -0 -1 -2 -3 -3 -5 -5 -6 -6 -6 -7 -8 -8 -8 -9 -9 -9 -10 -10 -10 -10 -10 -11 -11 -13 -14 -15 -16 -16 -16 -16 -16 -16 -16 -16 -17 -16 -16 -17 -17 -17
-0 -1 -2 -2 -3 -4 -4 -5 -5 -6 -6 -7 -8 -8 -9 -9 -10 -10 -10 -10 -10 -10 -10 -10 -11 -12 -13 -14 -15 -16 -16 -17 -16 -16 -16 -17 -17 -17 -16 -16 -17 -17 -17

GFSMA_700_temp_069.txt.gz
Temp
0 1 2 2 2 1 2 2 2 2 2 1 1 1 1 1 1 1 1 1 1 1 1 1 1 2 2 2 2 1 1 1 1 1 1 1 1 1 1 1 1 1 1
-1 1 1 1 1 1 2 2 1 1 2 1 1 1 1 1 1 1 1 1 1 1 1 1 1 1 1 1 1 1 0 0 0 0 0 0 1 1 0 0 0 0 1
-1 0 1 1 1 1 2 2 1 1 2 1 1 1 1 1 1 1 1 1 1 1 1 1 0 1 1 1 0 0 -0 0 0 -0 0 0 0 0 0 0 0 0 0
-2 -0 0 0 1 1 1 1 1 1 1 1 1 1 1 1 1 1 1 1 1 1 1 1 1 0 0 0 0 -0 -0 0 -0 -0 -0 -0 -0 -0 -0 -0 -0 -0 -0
-2 -2 -1 -0 1 1 1 1 0 1 1 1 1 1 1 0 1 1 1 0 0 1 1 0 0 -0 -0 -0 -0 -1 -1 -1 -1 -1 -1 -1 -1 -1 -1 -1 -1 -1 -1
-2 -2 -2 0 1 1 1 1 1 1 1 1 1 0 0 1 1 0 0 0 0 0 -0 -0 -0 -0 -0 -1 -1 -1 -1 -2 -2 -2 -2 -2 -2 -2 -2 -2 -2 -2 -3
-2 -2 -1 0 1 1 1 0 0 1 1 0 0 -0 -0 -0 0 -0 -0 0 -0 -1 -1 -1 -1 -0 -0 -1 -1 -1 -2 -2 -2 -2 -2 -3 -3 -3 -3 -3 -4 -4 -4
-2 -1 -0 0 1 1 1 -0 1 0 -0 -0 -1 -1 -0 -0 -0 -1 -1 -1 -1 -1 -1 -1 -1 -1 -0 -1 -1 -2 -2 -2 -2 -3 -3 -3 -3 -3 -4 -4 -4 -4 -4
-2 -1 -0 1 0 0 1 1 1 -0 0 -0 -0 -0 -1 -0 -1 -1 -1 -1 -1 -1 -2 -2 -2 -0 -1 -1 -1 -3 -3 -3 -3 -4 -4 -4 -4 -5 -5 -5 -5 -5 -6
-1 -0 0 1 -1 -1 1 0 0 0 -0 -0 -0 -0 -1 -1 -0 -1 -1 -1 -2 -1 -2 -2 -2 -2 -3 -4 -3 -3 -4 -3 -4 -4 -5 -5 -5 -5 -5 -6 -6 -6 -7
0 1 1 0 -0 0 1 0 0 -0 -0 -0 -0 -1 -1 -0 -1 -0 -1 -1 -2 -2 -2 -2 -2 -3 -3 -5 -5 -5 -4 -4 -5 -5 -6 -6 -6 -6 -6 -7 -7 -8 -8
1 1 1 1 1 1 1 1 1 0 0 0 -0 -1 -1 0 -0 -1 -1 -1 -2 -3 -3 -3 -4 -4 -4 -5 -5 -5 -5 -6 -6 -6 -6 -7 -7 -7 -8 -8 -9 -9 -9
1 1 1 1 1 1 1 1 -0 0 1 0 -0 -1 -2 -1 -1 -1 -1 -1 -2 -3 -4 -5 -4 -4 -4 -5 -6 -5 -5 -5 -6 -6 -7 -7 -8 -8 -9 -10 -10 -10 -11
2 1 0 -0 -0 -0 -0 -0 -0 0 1 0 -1 -1 -1 -1 -1 -1 -1 -2 -2 -2 -4 -4 -4 -4 -4 -4 -4 -5 -5 -5 -6 -6 -7 -8 -8 -9 -10 -11 -12 -13 -12
2 1 0 0 0 0 0 -0 0 1 0 0 -0 -1 -1 -2 -1 -2 -2 -2 -3 -4 -4 -4 -4 -4 -4 -5 -5 -5 -5 -6 -6 -7 -8 -8 -9 -9 -10 -12 -13 -13 -13
1 0 0 -0 0 1 0 0 0 0 0 0 -0 -1 -2 -2 -2 -2 -3 -4 -4 -4 -3 -4 -4 -4 -5 -5 -5 -5 -6 -6 -7 -8 -8 -9 -10 -10 -12 -12 -12 -13 -13
1 0 0 0 -0 1 0 1 1 1 0 -0 -1 -1 -2 -3 -3 -3 -4 -4 -3 -4 -4 -4 -4 -5 -5 -5 -6 -6 -7 -7 -8 -8 -9 -10 -10 -11 -12 -13 -13 -13 -13
0 1 1 1 1 1 1 1 1 -0 -0 -1 -2 -2 -3 -3 -3 -4 -4 -4 -4 -4 -4 -5 -5 -5 -6 -6 -6 -7 -8 -8 -9 -9 -10 -10 -11 -11 -12 -13 -13 -14 -14
0 0 1 1 1 1 1 1 -0 0 -0 -2 -1 -2 -2 -3 -3 -3 -4 -4 -5 -5 -5 -5 -5 -6 -6 -7 -7 -7 -8 -8 -9 -10 -10 -10 -11 -12 -13 -14 -14 -14 -14
1 1 1 1 1 1 1 1 0 -0 -1 -2 -2 -3 -3 -3 -4 -4 -4 -5 -5 -6 -5 -6 -6 -6 -7 -8 -8 -8 -8 -8 -9 -10 -10 -11 -11 -11 -13 -14 -14 -14 -14
2 2 2 1 2 2 1 1 0 -0 -1 -2 -2 -3 -3 -4 -3 -5 -6 -6 -6 -6 -6 -7 -7 -8 -8 -8 -9 -9 -9 -9 -9 -10 -10 -10 -11 -12 -13 -15 -15 -16 -15
2 2 2 2 2 1 1 0 -0 -0 -1 -1 -3 -4 -4 -3 -4 -6 -6 -6 -6 -7 -7 -7 -8 -9 -9 -9 -10 -10 -10 -10 -10 -10 -11 -10 -12 -12 -14 -16 -16 -16 -16
2 2 1 2 1 1 1 0 -0 -1 -2 -4 -3 -4 -4 -4 -4 -5 -6 -7 -7 -8 -8 -8 -9 -9 -10 -10 -10 -10 -11 -11 -11 -11 -12 -12 -13 -13 -15 -16 -16 -16 -15
2 1 1 1 1 0 -0 -1 -1 -2 -3 -4 -4 -4 -4 -5 -6 -6 -7 -7 -8 -9 -9 -9 -10 -10 -10 -11 -11 -11 -11 -11 -11 -12 -14 -14 -14 -14 -15 -16 -16 -16 -16
1 1 1 1 1 -0 -1 -1 -2 -2 -3 -4 -5 -5 -6 -6 -7 -7 -8 -9 -9 -9 -10 -10 -10 -11 -11 -11 -12 -12 -12 -13 -13 -13 -14 -16 -15 -16 -16 -16 -16 -16 -16
1 1 1 0 -0 -1 -1 -2 -3 -4 -4 -5 -5 -6 -7 -7 -8 -8 -9 -9 -9 -10 -10 -10 -11 -11 -11 -12 -12 -13 -14 -14 -15 -14 -15 -16 -16 -17 -16 -16 -16 -17 -17

GFSMA_700_temp_072.txt.gz
Temp
-0 0 1 0 2 1 1 1 1 2 1 1 2 2 2 2 1 2 1 1 2 2 2 2 2 2 2 2 2 2 2 2 2 2 2 2 1 1 1 1 1 1 1
-1 -0 -1 -1 0 1 1 1 2 2 2 2 1 1 2 2 2 1 1 1 1 1 1 1 1 1 1 1 1 2 2 2 1 1 1 1 1 0 0 1 1 1 1
-1 -1 -1 -1 -0 1 1 1 1 2 1 1 1 1 1 1 1 1 1 1 1 1 1 1 1 1 1 1 1 1 1 1 1 0 0 0 -0 -0 -0 -0 -0 -0 -0
-2 -1 -1 -1 -0 0 0 1 1 1 1 1 1 1 1 1 1 1 1 1 1 1 1 1 1 1 1 1 1 1 1 1 0 -0 -0 -0 -1 -1 -1 -1 -1 -1 -1
-1 -2 -2 -2 -2 -0 -0 1 1 1 1 1 1 1 1 1 1 1 1 1 1 0 0 0 0 0 0 0 0 0 -0 0 0 -0 -0 -1 -1 -1 -1 -2 -2 -1 -1
-2 -2 -2 -2 -2 -1 -0 0 1 0 1 0 1 0 0 0 0 0 0 0 -0 -0 -1 -1 -0 -0 -0 -0 -1 -1 -1 -1 -1 -1 -1 -1 -2 -2 -2 -2 -2 -2 -2
-2 -2 -2 -2 -2 -1 -0 0 1 0 0 -0 -0 -0 -0 -0 -0 -1 -1 -1 -1 -1 -1 -1 -2 -1 -1 -1 -1 -2 -2 -2 -2 -2 -2 -2 -2 -2 -2 -3 -3 -3 -3
-2 -2 -2 -2 -2 -1 -0 0 0 -0 -0 -0 -0 -0 -0 -0 -0 -1 -1 -1 -2 -1 -1 -1 -2 -2 -2 -2 -2 -2 -2 -2 -2 -3 -3 -3 -2 -3 -3 -3 -3 -3 -3
-2 -2 -2 -2 -2 -0 0 0 -0 -0 -1 -0 -0 -0 0 0 -0 -0 -0 -1 -1 -1 -2 -2 -2 -2 -2 -2 -2 -2 -2 -2 -3 -3 -3 -3 -3 -3 -3 -4 -4 -4 -4
-1 -2 -2 -2 -1 0 0 0 -0 -0 -1 0 -0 -0 -1 -1 -1 0 -0 -1 -1 -2 -1 -2 -2 -2 -2 -2 -3 -4 -4 -5 -3 -3 -4 -3 -3 -4 -4 -4 -4 -4 -5
-2 -2 -2 -2 -1 -0 -0 0 0 -1 -0 -0 -0 -0 -0 -1 -1 -1 -1 -1 -2 -1 -1 -2 -3 -2 -2 -3 -4 -5 -5 -4 -5 -5 -4 -5 -6 -6 -6 -5 -5 -6 -6
-1 -1 -1 -1 -1 -1 -2 -1 -1 -1 -0 -0 -0 -1 -1 -1 -1 -1 -1 -1 -1 -1 -2 -2 -4 -3 -3 -4 -5 -4 -4 -5 -7 -6 -6 -6 -7 -6 -7 -9 -9 -10 -9
2 1 -0 -1 -1 -1 -0 -1 -2 -2 -1 -1 -0 -0 -0 -0 -1 -1 -2 -1 -1 -2 -2 -3 -4 -4 -5 -5 -5 -4 -5 -5 -5 -6 -6 -6 -6 -6 -7 -9 -9 -10 -10
2 1 0 -0 -1 -1 -1 -1 -1 -1 -0 -1 -0 -0 -0 -1 -1 -1 -1 -1 -2 -2 -2 -3 -4 -4 -4 -5 -5 -5 -5 -5 -5 -5 -5 -6 -6 -7 -7 -8 -9 -10 -10
1 0 -0 -0 -0 -0 -0 -1 -1 -0 -0 -1 -0 0 0 -0 -1 -1 -2 -2 -2 -2 -2 -4 -4 -5 -5 -5 -5 -5 -6 -5 -5 -6 -6 -7 -7 -7 -8 -8 -9 -10 -11
1 1 0 0 0 0 0 0 -0 -0 -1 -0 0 0 0 -0 -1 -2 -3 -3 -3 -3 -3 -4 -4 -4 -5 -5 -5 -5 -5 -5 -6 -6 -6 -7 -7 -8 -9 -9 -9 -10 -11
1 1 -0 -0 0 0 0 -0 0 -1 -1 0 -0 0 -0 -1 -2 -2 -2 -3 -4 -3 -4 -5 -5 -5 -5 -5 -5 -5 -5 -6 -6 -7 -7 -8 -8 -9 -9 -10 -10 -11 -11
1 1 -0 -0 0 -0 -0 -1 0 -0 -0 -0 -0 0 -0 -1 -1 -3 -3 -4 -3 -4 -4 -4 -4 -4 -4 -5 -5 -6 -6 -7 -7 -7 -8 -8 -9 -9 -10 -10 -10 -11 -12
0 0 1 -0 1 0 1 1 1 1 -0 -0 -1 -1 -1 -1 -2 -3 -3 -3 -3 -4 -4 -5 -5 -5 -5 -5 -6 -6 -7 -7 -8 -8 -8 -9 -9 -9 -10 -10 -10 -11 -12
0 -0 -0 1 0 -0 -0 0 1 1 0 -0 -1 -2 -1 -2 -3 -4 -4 -4 -4 -5 -4 -5 -6 -5 -6 -6 -6 -7 -7 -8 -8 -8 -9 -9 -9 -10 -10 -11 -11 -12 -12
1 1 0 1 1 1 1 1 1 1 0 -1 -1 -2 -2 -2 -3 -3 -4 -5 -4 -4 -5 -6 -6 -6 -6 -7 -7 -8 -8 -8 -8 -9 -9 -10 -10 -10 -11 -11 -12 -12 -13
2 2 1 2 1 2 1 1 1 1 0 -2 -2 -1 -2 -3 -3 -4 -4 -4 -5 -5 -5 -6 -6 -7 -7 -8 -8 -8 -9 -9 -9 -9 -10 -10 -11 -11 -12 -12 -13 -13 -14
2 2 2 2 1 1 1 1 1 -1 -1 -2 -2 -3 -2 -3 -4 -4 -5 -5 -5 -6 -6 -7 -7 -8 -8 -9 -9 -9 -10 -10 -10 -11 -11 -10 -12 -12 -13 -13 -14 -14 -16
2 1 1 2 1 1 1 1 0 -1 -1 -2 -2 -2 -2 -4 -5 -4 -5 -5 -6 -6 -7 -8 -8 -9 -9 -10 -10 -10 -11 -11 -11 -12 -12 -12 -12 -12 -13 -14 -15 -16 -16
2 1 2 1 2 1 1 -1 -1 -1 -1 -2 -2 -2 -3 -4 -5 -5 -6 -6 -7 -7 -8 -9 -9 -10 -11 -11 -11 -12 -12 -12 -12 -12 -13 -13 -13 -14 -14 -15 -16 -17 -16
2 2 2 1 1 1 -0 -1 -1 -2 -2 -2 -2 -3 -4 -4 -5 -6 -6 -7 -8 -9 -9 -10 -11 -12 -13 -12 -12 -13 -13 -13 -13 -12 -13 -14 -14 -15 -15 -15 -17 -16 -16

GFSMA_700_temp_075.txt.gz
Temp
1 1 1 1 1 1 1 2 1 1 1 2 2 2 2 2 2 2 2 2 2 2 2 2 2 2 2 2 2 2 2 2 2 2 2 2 2 1 1 1 1 1 1
-0 -1 -0 1 1 0 1 1 1 1 2 1 1 1 1 1 1 1 1 1 1 1 2 2 2 2 2 2 2 2 2 2 2 2 2 1 1 1 0 0 0 -0 -0
-1 -1 -1 -1 -0 -0 0 -0 1 1 1 1 1 1 1 1 1 1 1 1 1 1 1 1 1 1 1 1 1 1 1 1 1 1 1 1 0 0 1 0 0 -0 -0
-1 -2 -2 -2 -1 -2 -1 -1 1 1 1 1 1 1 1 1 1 1 1 1 1 1 1 1 1 1 1 1 0 0 0 1 1 0 0 0 0 0 -0 -0 -0 -0 -1
-1 -1 -1 -1 -1 -1 -1 -0 -0 0 1 1 0 0 1 1 1 1 1 1 0 0 -0 0 -0 -0 -0 -0 -0 -0 0 0 -0 -0 -0 -0 -1 -1 -1 -1 -1 -1 -1
-1 -1 -2 -2 -1 -1 -1 -1 -1 -0 0 0 0 0 0 0 -0 -0 -0 -0 -1 -1 -1 -1 -1 -1 -1 -2 -1 -1 -0 -0 -0 -0 -1 -1 -1 -2 -2 -2 -2 -2 -2
-2 -2 -2 -1 -2 -2 -2 -2 -1 -0 -0 -0 -0 -0 -0 -0 -0 -1 -0 -1 -1 -1 -1 -1 -1 -1 -2 -2 -2 -1 -1 -1 -1 -1 -1 -1 -1 -2 -2 -2 -2 -2 -3
-2 -2 -1 -1 -2 -2 -2 -1 -1 -1 -0 -1 -1 -1 -0 -0 -0 -1 -1 -1 -1 -1 -1 -1 -1 -1 -2 -2 -2 -1 -2 -2 -1 -2 -1 -1 -2 -2 -3 -3 -3 -3 -3
-2 -1 -2 -2 -2 -1 -2 -2 -1 -1 -1 -1 -1 -1 -0 -0 -0 -1 -1 -1 -1 -2 -1 -1 -1 -1 -2 -3 -2 -2 -3 -3 -3 -3 -3 -4 -3 -4 -2 -3 -3 -3 -3
-1 -1 -2 -1 -1 -2 -2 -2 -1 -1 -1 -1 -1 -1 -0 -0 -0 -0 -0 -0 -1 -1 -1 -1 -1 -1 -2 -2 -2 -3 -4 -4 -5 -4 -4 -4 -5 -6 -6 -4 -4 -4 -4
-1 -2 -2 -2 -1 -2 -2 -2 -1 -0 -1 -0 -1 -1 -0 -0 -0 -0 -0 -0 -1 -1 -1 -2 -1 -1 -2 -3 -3 -3 -3 -5 -4 -4 -4 -4 -6 -5 -6 -5 -7 -7 -7
-1 -2 -1 -2 -2 -2 -2 -2 -2 -1 -1 -1 -1 -1 -1 -1 -0 -1 -1 -1 -1 -1 -1 -1 -2 -2 -2 -3 -3 -4 -4 -5 -5 -4 -4 -4 -5 -5 -6 -6 -6 -8 -8
-2 -1 -1 -1 -1 -2 -2 -2 -2 -1 -1 -1 -1 -1 -1 -1 -1 -1 -1 -0 -1 -1 -2 -2 -2 -2 -3 -4 -4 -5 -5 -5 -5 -5 -5 -5 -5 -5 -5 -6 -6 -7 -8
1 -1 -1 -1 -2 -1 -1 -1 -1 -2 -1 -1 -1 -1 -1 -1 -0 -1 -1 -1 -1 -2 -2 -2 -2 -2 -4 -4 -4 -5 -5 -5 -5 -5 -5 -5 -5 -5 -6 -6 -7 -7 -7
2 1 1 1 0 -0 -1 -1 -1 -1 -1 -1 -0 -0 -1 -1 -1 -0 -0 -1 -0 -1 -2 -3 -3 -3 -4 -4 -4 -5 -5 -5 -5 -5 -5 -5 -6 -6 -6 -6 -7 -7 -7
2 2 2 1 1 -0 -1 -1 -1 -1 -1 -1 -1 -0 -0 -0 -0 -0 -0 -1 -2 -2 -3 -3 -4 -4 -5 -5 -5 -5 -5 -5 -5 -5 -5 -6 -6 -6 -6 -6 -7 -7 -7
3 3 2 2 1 0 -0 -0 -0 -0 -1 -1 -0 -1 -1 0 -0 -0 -1 -2 -2 -2 -3 -3 -4 -4 -4 -4 -5 -5 -5 -5 -5 -5 -6 -6 -6 -7 -7 -7 -7 -8 -8
2 2 2 1 1 -0 -0 -1 -0 -0 -1 -0 -0 -1 -1 -1 -1 -1 -2 -2 -2 -2 -3 -4 -4 -3 -4 -5 -5 -6 -6 -5 -6 -6 -6 -7 -7 -7 -7 -7 -8 -8 -8
2 2 2 1 -0 -0 -0 -1 -1 -1 -1 -0 -1 -1 -1 -0 -1 -2 -2 -2 -3 -3 -4 -4 -4 -4 -4 -4 -5 -6 -6 -6 -7 -7 -7 -8 -8 -8 -8 -8 -8 -8 -9
1 1 1 0 -1 -0 -1 -1 -0 -0 -0 -0 -0 -1 -0 -1 -1 -1 -2 -3 -3 -3 -4 -4 -4 -5 -5 -5 -5 -6 -6 -6 -7 -8 -8 -8 -9 -9 -9 -9 -9 -9 -9
2 1 1 0 -0 -1 -0 0 -0 -0 -1 -0 -0 0 0 -0 -1 -1 -2 -2 -3 -3 -4 -4 -5 -5 -5 -5 -6 -6 -6 -7 -8 -8 -9 -9 -9 -10 -10 -9 -10 -10 -11
3 2 1 1 1 0 1 0 0 0 0 0 0 1 -0 -1 -1 -2 -2 -2 -4 -4 -5 -4 -5 -5 -5 -6 -6 -7 -7 -8 -8 -9 -9 -10 -10 -10 -10 -11 -11 -12 -12
3 3 2 2 2 1 1 1 1 1 1 1 1 0 -0 -1 -1 -2 -2 -4 -3 -5 -5 -6 -5 -6 -7 -7 -7 -8 -9 -9 -9 -11 -11 -10 -11 -11 -11 -12 -12 -13 -13
2 2 2 2 2 2 1 1 1 1 1 1 -0 -1 -1 -2 -2 -3 -3 -3 -5 -6 -5 -5 -7 -7 -8 -8 -9 -10 -10 -10 -11 -12 -12 -11 -12 -11 -12 -12 -13 -14 -14
2 2 2 1 2 2 2 1 1 1 1 -1 -1 -2 -2 -2 -3 -4 -3 -6 -7 -6 -6 -7 -8 -8 -9 -10 -10 -10 -11 -12 -12 -12 -12 -13 -12 -12 -13 -13 -14 -14 -15
2 2 2 2 1 1 1 1 1 1 -2 -1 -2 -2 -3 -3 -3 -3 -5 -6 -6 -7 -8 -8 -9 -9 -10 -11 -11 -11 -12 -12 -13 -13 -13 -13 -13 -14 -13 -13 -14 -15 -16